Time,TemperatureF,DewpointF,PressureIn,WindDirection,WindDirectionDegrees,WindSpeedMPH,WindSpeedGustMPH,Humidity,HourlyPrecipIn,Conditions,Clouds,dailyrainin,SoftwareType,DateUTC
2013-11-28 00:00:00,21.0,17.2,29.41,West,277,5.8,5.8,85,0.00,,---,0.00,VWS V14.01,2013-11-28 05:00:00,
2013-11-28 00:01:00,21.0,17.2,29.41,West,279,2.7,5.8,85,0.00,,---,0.00,VWS V14.01,2013-11-28 05:01:00,
2013-11-28 00:02:00,21.0,17.2,29.41,SW,219,5.4,5.4,85,0.00,,---,0.00,VWS V14.01,2013-11-28 05:02:00,
2013-11-28 00:06:00,20.8,17.0,29.41,West,278,7.6,7.6,85,0.00,,---,0.00,VWS V14.01,2013-11-28 05:06:00,
2013-11-28 00:07:00,20.8,17.0,29.41,WNW,284,7.2,7.2,85,0.00,,---,0.00,VWS V14.01,2013-11-28 05:07:00,
2013-11-28 00:11:00,20.8,17.0,29.41,SW,236,3.1,4.0,85,0.00,,---,0.00,VWS V14.01,2013-11-28 05:11:00,
2013-11-28 00:12:00,20.8,17.0,29.41,WSW,257,4.0,4.9,85,0.00,,---,0.00,VWS V14.01,2013-11-28 05:12:00,
2013-11-28 00:16:00,20.8,17.0,29.41,West,272,6.3,6.3,85,0.00,,---,0.00,VWS V14.01,2013-11-28 05:16:00,
2013-11-28 00:17:00,20.8,17.0,29.41,West,279,4.9,6.3,85,0.00,,---,0.00,VWS V14.01,2013-11-28 05:17:00,
2013-11-28 00:21:00,20.8,17.0,29.41,SW,233,6.3,6.3,85,0.00,,---,0.00,VWS V14.01,2013-11-28 05:21:00,
2013-11-28 00:22:00,20.7,16.9,29.41,West,263,4.0,6.3,85,0.00,,---,0.00,VWS V14.01,2013-11-28 05:22:00,
2013-11-28 00:26:00,20.7,16.9,29.41,WSW,241,5.8,5.8,85,0.00,,---,0.00,VWS V14.01,2013-11-28 05:26:00,
2013-11-28 00:27:00,20.7,16.9,29.41,West,259,5.4,5.4,85,0.00,,---,0.00,VWS V14.01,2013-11-28 05:27:00,
2013-11-28 00:31:00,20.7,16.9,29.41,West,269,3.6,3.6,85,0.00,,---,0.00,VWS V14.01,2013-11-28 05:31:00,
2013-11-28 00:32:00,20.5,16.7,29.41,WSW,257,3.1,3.6,85,0.00,,---,0.00,VWS V14.01,2013-11-28 05:32:00,
2013-11-28 00:36:00,20.3,16.5,29.41,SW,228,3.6,5.4,85,0.00,,---,0.00,VWS V14.01,2013-11-28 05:36:00,
2013-11-28 00:37:00,20.3,16.5,29.41,SW,231,3.6,5.4,85,0.00,,---,0.00,VWS V14.01,2013-11-28 05:37:00,
2013-11-28 00:41:00,20.3,16.5,29.41,WSW,252,5.8,5.8,85,0.00,,---,0.00,VWS V14.01,2013-11-28 05:41:00,
2013-11-28 00:42:00,20.3,16.5,29.41,WSW,258,3.1,5.8,85,0.00,,---,0.00,VWS V14.01,2013-11-28 05:42:00,
2013-11-28 00:47:00,20.3,16.5,29.41,West,262,2.7,4.9,85,0.00,,---,0.00,VWS V14.01,2013-11-28 05:47:00,
2013-11-28 00:48:00,20.3,16.5,29.41,West,271,3.6,5.4,85,0.00,,---,0.00,VWS V14.01,2013-11-28 05:48:00,
2013-11-28 00:52:00,20.3,16.5,29.41,WSW,254,3.1,3.1,85,0.00,,---,0.00,VWS V14.01,2013-11-28 05:52:00,
2013-11-28 00:53:00,20.3,16.5,29.41,West,259,4.9,4.9,85,0.00,,---,0.00,VWS V14.01,2013-11-28 05:53:00,
2013-11-28 00:57:00,20.3,16.5,29.41,WSW,249,3.6,3.6,85,0.00,,---,0.00,VWS V14.01,2013-11-28 05:57:00,
2013-11-28 00:58:00,20.3,16.5,29.41,WSW,255,2.7,5.8,85,0.00,,---,0.00,VWS V14.01,2013-11-28 05:58:00,
2013-11-28 00:59:00,20.3,16.5,29.41,WSW,257,4.9,5.4,85,0.00,,---,0.00,VWS V14.01,2013-11-28 05:59:00,
2013-11-28 01:02:00,20.1,16.3,29.41,SW,227,3.6,3.6,85,0.00,,---,0.00,VWS V14.01,2013-11-28 06:02:00,
2013-11-28 01:03:00,20.1,16.3,29.41,WNW,287,3.6,3.6,85,0.00,,---,0.00,VWS V14.01,2013-11-28 06:03:00,
2013-11-28 01:04:00,20.1,16.3,29.41,West,268,3.6,3.6,85,0.00,,---,0.00,VWS V14.01,2013-11-28 06:04:00,
2013-11-28 01:07:00,20.1,16.3,29.41,West,274,5.4,5.4,85,0.00,,---,0.00,VWS V14.01,2013-11-28 06:07:00,
2013-11-28 01:08:00,20.1,16.3,29.41,WSW,254,3.6,3.6,85,0.00,,---,0.00,VWS V14.01,2013-11-28 06:08:00,
2013-11-28 01:09:00,20.1,16.3,29.41,WSW,252,3.1,4.0,85,0.00,,---,0.00,VWS V14.01,2013-11-28 06:09:00,
2013-11-28 01:12:00,20.1,16.3,29.41,West,261,2.7,4.0,85,0.00,,---,0.00,VWS V14.01,2013-11-28 06:12:00,
2013-11-28 01:13:00,20.1,16.3,29.41,WSW,253,3.6,5.8,85,0.00,,---,0.00,VWS V14.01,2013-11-28 06:13:00,
2013-11-28 01:15:00,20.1,16.3,29.41,West,264,3.6,4.9,85,0.00,,---,0.00,VWS V14.01,2013-11-28 06:15:00,
2013-11-28 01:17:00,20.1,16.3,29.41,West,261,3.6,4.0,85,0.00,,---,0.00,VWS V14.01,2013-11-28 06:17:00,
2013-11-28 01:18:00,20.1,16.3,29.41,WNW,284,6.3,6.3,85,0.00,,---,0.00,VWS V14.01,2013-11-28 06:18:00,
2013-11-28 01:19:00,20.1,16.3,29.41,West,279,5.4,5.4,85,0.00,,---,0.00,VWS V14.01,2013-11-28 06:19:00,
2013-11-28 01:21:00,20.1,16.3,29.41,West,267,4.0,4.0,85,0.00,,---,0.00,VWS V14.01,2013-11-28 06:21:00,
2013-11-28 01:22:00,20.1,16.3,29.41,West,268,2.7,4.9,85,0.00,,---,0.00,VWS V14.01,2013-11-28 06:22:00,
2013-11-28 01:23:00,19.9,16.2,29.41,SSW,212,7.2,7.2,85,0.00,,---,0.00,VWS V14.01,2013-11-28 06:23:00,
2013-11-28 01:24:00,19.9,16.2,29.41,West,272,5.4,7.2,85,0.00,,---,0.00,VWS V14.01,2013-11-28 06:24:00,
2013-11-28 01:26:00,20.1,16.3,29.41,WNW,284,5.4,5.4,85,0.00,,---,0.00,VWS V14.01,2013-11-28 06:26:00,
2013-11-28 01:27:00,20.1,16.3,29.41,WSW,258,3.1,3.1,85,0.00,,---,0.00,VWS V14.01,2013-11-28 06:27:00,
2013-11-28 01:28:00,19.9,16.2,29.41,West,271,3.1,5.4,85,0.00,,---,0.00,VWS V14.01,2013-11-28 06:28:00,
2013-11-28 01:29:00,19.9,16.2,29.41,West,265,3.6,5.4,85,0.00,,---,0.00,VWS V14.01,2013-11-28 06:29:00,
2013-11-28 01:30:00,19.9,16.2,29.41,WSW,255,2.7,6.3,85,0.00,,---,0.00,VWS V14.01,2013-11-28 06:30:00,
2013-11-28 01:31:00,19.9,16.2,29.41,WSW,241,4.9,4.9,85,0.00,,---,0.00,VWS V14.01,2013-11-28 06:31:00,
2013-11-28 01:32:00,19.9,16.2,29.41,West,270,2.7,5.4,85,0.00,,---,0.00,VWS V14.01,2013-11-28 06:32:00,
2013-11-28 01:33:00,19.9,16.2,29.41,West,275,2.7,4.0,85,0.00,,---,0.00,VWS V14.01,2013-11-28 06:33:00,
2013-11-28 01:34:00,19.9,16.2,29.41,WSW,239,2.7,3.1,85,0.00,,---,0.00,VWS V14.01,2013-11-28 06:34:00,
2013-11-28 01:35:00,19.9,16.2,29.41,West,279,3.6,5.4,85,0.00,,---,0.00,VWS V14.01,2013-11-28 06:35:00,
2013-11-28 01:36:00,19.9,16.2,29.41,West,260,2.7,5.4,85,0.00,,---,0.00,VWS V14.01,2013-11-28 06:36:00,
2013-11-28 01:38:00,19.8,16.0,29.41,West,260,2.7,5.8,85,0.00,,---,0.00,VWS V14.01,2013-11-28 06:38:00,
2013-11-28 01:39:00,19.8,16.0,29.41,West,277,2.7,2.7,85,0.00,,---,0.00,VWS V14.01,2013-11-28 06:39:00,
2013-11-28 01:40:00,19.8,16.0,29.41,West,271,5.4,5.4,85,0.00,,---,0.00,VWS V14.01,2013-11-28 06:40:00,
2013-11-28 01:42:00,19.8,16.0,29.41,West,279,2.7,2.7,85,0.00,,---,0.00,VWS V14.01,2013-11-28 06:42:00,
2013-11-28 01:43:00,19.8,16.0,29.41,West,264,2.7,3.1,85,0.00,,---,0.00,VWS V14.01,2013-11-28 06:43:00,
2013-11-28 01:44:00,19.8,16.0,29.41,West,265,0.0,2.7,85,0.00,,---,0.00,VWS V14.01,2013-11-28 06:44:00,
2013-11-28 01:45:00,19.6,15.8,29.41,West,267,3.1,3.1,85,0.00,,---,0.00,VWS V14.01,2013-11-28 06:45:00,
2013-11-28 01:47:00,19.6,15.8,29.41,West,266,4.0,4.0,85,0.00,,---,0.00,VWS V14.01,2013-11-28 06:47:00,
2013-11-28 01:48:00,19.6,15.8,29.41,West,274,3.1,3.6,85,0.00,,---,0.00,VWS V14.01,2013-11-28 06:48:00,
2013-11-28 01:49:00,19.6,15.8,29.41,West,274,3.1,3.6,85,0.00,,---,0.00,VWS V14.01,2013-11-28 06:49:00,
2013-11-28 01:50:00,19.6,15.8,29.41,West,273,0.0,0.0,85,0.00,,---,0.00,VWS V14.01,2013-11-28 06:50:00,
2013-11-28 01:52:00,19.6,15.8,29.41,West,260,3.1,3.6,85,0.00,,---,0.00,VWS V14.01,2013-11-28 06:52:00,
2013-11-28 01:53:00,19.6,15.8,29.41,West,268,3.1,3.1,85,0.00,,---,0.00,VWS V14.01,2013-11-28 06:53:00,
2013-11-28 01:54:00,19.6,15.8,29.41,West,263,4.0,4.0,85,0.00,,---,0.00,VWS V14.01,2013-11-28 06:54:00,
2013-11-28 01:55:00,19.6,15.8,29.41,West,268,2.7,2.7,85,0.00,,---,0.00,VWS V14.01,2013-11-28 06:55:00,
2013-11-28 01:57:00,19.6,15.8,29.41,West,264,2.7,3.1,85,0.00,,---,0.00,VWS V14.01,2013-11-28 06:57:00,
2013-11-28 01:58:00,19.6,15.8,29.41,SW,233,3.1,3.6,85,0.00,,---,0.00,VWS V14.01,2013-11-28 06:58:00,
2013-11-28 01:59:00,19.6,15.8,29.41,WSW,241,3.1,4.0,85,0.00,,---,0.00,VWS V14.01,2013-11-28 06:59:00,
2013-11-28 02:00:00,19.6,15.8,29.41,West,262,2.7,5.4,85,0.00,,---,0.00,VWS V14.01,2013-11-28 07:00:00,
2013-11-28 02:01:00,19.6,15.8,29.41,WSW,250,3.1,4.0,85,0.00,,---,0.00,VWS V14.01,2013-11-28 07:01:00,
2013-11-28 02:02:00,19.6,15.8,29.41,WSW,239,3.6,3.6,85,0.00,,---,0.00,VWS V14.01,2013-11-28 07:02:00,
2013-11-28 02:03:00,19.6,15.8,29.41,West,271,3.6,3.6,85,0.00,,---,0.00,VWS V14.01,2013-11-28 07:03:00,
2013-11-28 02:04:00,19.6,15.8,29.41,SW,233,2.7,3.6,85,0.00,,---,0.00,VWS V14.01,2013-11-28 07:04:00,
2013-11-28 02:05:00,19.6,15.8,29.41,WSW,250,4.0,4.0,85,0.00,,---,0.00,VWS V14.01,2013-11-28 07:05:00,
2013-11-28 02:06:00,19.6,15.8,29.41,WSW,244,3.1,5.4,85,0.00,,---,0.00,VWS V14.01,2013-11-28 07:06:00,
2013-11-28 02:07:00,19.6,15.8,29.41,WSW,257,3.1,4.9,85,0.00,,---,0.00,VWS V14.01,2013-11-28 07:07:00,
2013-11-28 02:08:00,19.8,16.0,29.41,West,262,3.6,3.6,85,0.00,,---,0.00,VWS V14.01,2013-11-28 07:08:00,
2013-11-28 02:10:00,19.8,16.0,29.41,WSW,243,3.1,3.1,85,0.00,,---,0.00,VWS V14.01,2013-11-28 07:10:00,
2013-11-28 02:11:00,19.8,16.0,29.41,WSW,238,0.0,2.2,85,0.00,,---,0.00,VWS V14.01,2013-11-28 07:11:00,
2013-11-28 02:12:00,19.8,16.0,29.41,West,272,3.1,4.0,85,0.00,,---,0.00,VWS V14.01,2013-11-28 07:12:00,
2013-11-28 02:13:00,19.9,16.2,29.41,WSW,252,2.7,4.9,85,0.00,,---,0.00,VWS V14.01,2013-11-28 07:13:00,
2013-11-28 02:15:00,19.9,16.2,29.41,WSW,246,4.0,4.0,85,0.00,,---,0.00,VWS V14.01,2013-11-28 07:15:00,
2013-11-28 02:16:00,19.9,16.2,29.41,WSW,256,2.7,3.6,85,0.00,,---,0.00,VWS V14.01,2013-11-28 07:16:00,
2013-11-28 02:17:00,19.9,16.2,29.41,West,260,3.6,3.6,85,0.00,,---,0.00,VWS V14.01,2013-11-28 07:17:00,
2013-11-28 02:18:00,19.9,16.2,29.41,WSW,249,2.7,2.7,85,0.00,,---,0.00,VWS V14.01,2013-11-28 07:18:00,
2013-11-28 02:20:00,19.9,16.2,29.41,SW,225,4.9,5.4,85,0.00,,---,0.00,VWS V14.01,2013-11-28 07:20:00,
2013-11-28 02:22:00,19.9,16.2,29.41,West,269,3.1,3.6,85,0.00,,---,0.00,VWS V14.01,2013-11-28 07:22:00,
2013-11-28 02:23:00,19.9,16.2,29.41,West,271,3.1,3.1,85,0.00,,---,0.00,VWS V14.01,2013-11-28 07:23:00,
2013-11-28 02:25:00,19.9,16.2,29.41,West,272,4.0,4.0,85,0.00,,---,0.00,VWS V14.01,2013-11-28 07:25:00,
2013-11-28 02:27:00,19.9,16.2,29.41,West,276,4.0,5.4,85,0.00,,---,0.00,VWS V14.01,2013-11-28 07:27:00,
2013-11-28 02:28:00,19.9,16.2,29.41,West,262,3.6,4.0,85,0.00,,---,0.00,VWS V14.01,2013-11-28 07:28:00,
2013-11-28 02:29:00,19.9,16.2,29.41,WNW,283,4.9,5.4,85,0.00,,---,0.00,VWS V14.01,2013-11-28 07:29:00,
2013-11-28 02:30:00,19.9,16.2,29.41,West,266,4.0,5.4,85,0.00,,---,0.00,VWS V14.01,2013-11-28 07:30:00,
2013-11-28 02:32:00,19.9,16.2,29.41,WSW,246,6.3,6.7,85,0.00,,---,0.00,VWS V14.01,2013-11-28 07:32:00,
2013-11-28 02:33:00,19.9,16.2,29.41,SW,218,6.3,6.3,85,0.00,,---,0.00,VWS V14.01,2013-11-28 07:33:00,
2013-11-28 02:34:00,19.9,16.2,29.41,West,265,2.7,5.4,85,0.00,,---,0.00,VWS V14.01,2013-11-28 07:34:00,
2013-11-28 02:35:00,19.9,16.2,29.41,WSW,257,4.0,5.8,85,0.00,,---,0.00,VWS V14.01,2013-11-28 07:35:00,
2013-11-28 02:37:00,19.9,16.2,29.41,WSW,249,3.1,3.1,85,0.00,,---,0.00,VWS V14.01,2013-11-28 07:37:00,
2013-11-28 02:38:00,19.9,16.2,29.41,West,260,2.7,4.0,85,0.00,,---,0.00,VWS V14.01,2013-11-28 07:38:00,
2013-11-28 02:39:00,19.9,16.2,29.41,West,263,2.7,3.1,85,0.00,,---,0.00,VWS V14.01,2013-11-28 07:39:00,
2013-11-28 02:40:00,19.9,16.2,29.44,WSW,245,2.7,4.9,85,0.00,,---,0.00,VWS V14.01,2013-11-28 07:40:00,
2013-11-28 02:41:00,19.9,16.2,29.44,WSW,245,2.7,4.9,85,0.00,,---,0.00,VWS V14.01,2013-11-28 07:41:00,
2013-11-28 02:43:00,19.9,16.2,29.44,SW,223,3.6,3.6,85,0.00,,---,0.00,VWS V14.01,2013-11-28 07:43:00,
2013-11-28 02:44:00,19.9,16.2,29.44,SW,226,2.2,2.7,85,0.00,,---,0.00,VWS V14.01,2013-11-28 07:44:00,
2013-11-28 02:46:00,19.9,16.2,29.44,WSW,258,3.6,4.0,85,0.00,,---,0.00,VWS V14.01,2013-11-28 07:46:00,
2013-11-28 02:48:00,19.9,16.2,29.44,West,267,3.1,3.6,85,0.00,,---,0.00,VWS V14.01,2013-11-28 07:48:00,
2013-11-28 02:49:00,19.9,16.2,29.44,WSW,255,3.1,4.0,85,0.00,,---,0.00,VWS V14.01,2013-11-28 07:49:00,
2013-11-28 02:51:00,19.9,16.2,29.44,WSW,240,3.1,3.1,85,0.00,,---,0.00,VWS V14.01,2013-11-28 07:51:00,
2013-11-28 02:53:00,19.9,16.2,29.44,West,269,3.1,3.1,85,0.00,,---,0.00,VWS V14.01,2013-11-28 07:53:00,
2013-11-28 02:54:00,19.9,16.2,29.44,West,271,2.7,3.6,85,0.00,,---,0.00,VWS V14.01,2013-11-28 07:54:00,
2013-11-28 02:56:00,19.9,16.2,29.44,West,271,0.0,3.1,85,0.00,,---,0.00,VWS V14.01,2013-11-28 07:56:00,
2013-11-28 02:58:00,19.9,16.2,29.44,West,272,3.1,3.6,85,0.00,,---,0.00,VWS V14.01,2013-11-28 07:58:00,
2013-11-28 02:59:00,19.9,16.2,29.44,West,273,3.1,4.9,85,0.00,,---,0.00,VWS V14.01,2013-11-28 07:59:00,
2013-11-28 03:01:00,19.8,16.0,29.44,West,263,3.1,3.1,85,0.00,,---,0.00,VWS V14.01,2013-11-28 08:01:00,
2013-11-28 03:03:00,19.8,16.0,29.44,West,279,4.0,4.9,85,0.00,,---,0.00,VWS V14.01,2013-11-28 08:03:00,
2013-11-28 03:04:00,19.8,16.0,29.44,West,265,4.0,6.3,85,0.00,,---,0.00,VWS V14.01,2013-11-28 08:04:00,
2013-11-28 03:05:00,19.8,16.0,29.44,WSW,254,3.6,4.0,85,0.00,,---,0.00,VWS V14.01,2013-11-28 08:05:00,
2013-11-28 03:06:00,19.8,16.0,29.44,WSW,251,3.6,5.4,85,0.00,,---,0.00,VWS V14.01,2013-11-28 08:06:00,
2013-11-28 03:08:00,19.8,16.0,29.44,WSW,247,3.6,3.6,85,0.00,,---,0.00,VWS V14.01,2013-11-28 08:08:00,
2013-11-28 03:09:00,19.8,16.0,29.44,West,266,2.7,3.6,85,0.00,,---,0.00,VWS V14.01,2013-11-28 08:09:00,
2013-11-28 03:10:00,19.8,16.0,29.44,WSW,246,2.2,2.2,85,0.00,,---,0.00,VWS V14.01,2013-11-28 08:10:00,
2013-11-28 03:11:00,19.6,15.8,29.44,West,260,2.7,3.1,85,0.00,,---,0.00,VWS V14.01,2013-11-28 08:11:00,
2013-11-28 03:12:00,19.6,15.8,29.44,WSW,253,3.1,3.1,85,0.00,,---,0.00,VWS V14.01,2013-11-28 08:12:00,
2013-11-28 03:13:00,19.6,15.8,29.44,WSW,248,3.6,4.9,85,0.00,,---,0.00,VWS V14.01,2013-11-28 08:13:00,
2013-11-28 03:14:00,19.6,15.8,29.44,West,277,3.1,3.1,85,0.00,,---,0.00,VWS V14.01,2013-11-28 08:14:00,
2013-11-28 03:15:00,19.6,15.8,29.44,West,266,3.1,3.1,85,0.00,,---,0.00,VWS V14.01,2013-11-28 08:15:00,
2013-11-28 03:17:00,19.6,15.8,29.44,WSW,258,4.0,6.3,85,0.00,,---,0.00,VWS V14.01,2013-11-28 08:17:00,
2013-11-28 03:18:00,19.4,15.6,29.44,WSW,253,2.7,3.6,85,0.00,,---,0.00,VWS V14.01,2013-11-28 08:18:00,
2013-11-28 03:19:00,19.4,15.6,29.44,West,262,3.1,3.6,85,0.00,,---,0.00,VWS V14.01,2013-11-28 08:19:00,
2013-11-28 03:20:00,19.4,15.6,29.44,West,268,3.6,4.9,85,0.00,,---,0.00,VWS V14.01,2013-11-28 08:20:00,
2013-11-28 03:22:00,19.4,15.6,29.44,WSW,257,3.1,4.0,85,0.00,,---,0.00,VWS V14.01,2013-11-28 08:22:00,
2013-11-28 03:24:00,19.4,15.6,29.44,WSW,245,3.1,3.1,85,0.00,,---,0.00,VWS V14.01,2013-11-28 08:24:00,
2013-11-28 03:25:00,19.4,15.6,29.44,WSW,243,2.7,5.8,85,0.00,,---,0.00,VWS V14.01,2013-11-28 08:25:00,
2013-11-28 03:26:00,19.4,15.6,29.44,WSW,246,4.0,4.0,85,0.00,,---,0.00,VWS V14.01,2013-11-28 08:26:00,
2013-11-28 03:27:00,19.4,15.6,29.44,West,259,0.0,4.0,85,0.00,,---,0.00,VWS V14.01,2013-11-28 08:27:00,
2013-11-28 03:29:00,19.4,15.6,29.44,WSW,249,2.7,2.7,85,0.00,,---,0.00,VWS V14.01,2013-11-28 08:29:00,
2013-11-28 03:30:00,19.4,15.6,29.44,WSW,249,2.7,2.7,85,0.00,,---,0.00,VWS V14.01,2013-11-28 08:30:00,
2013-11-28 03:31:00,19.4,15.6,29.44,WSW,249,0.0,0.0,85,0.00,,---,0.00,VWS V14.01,2013-11-28 08:31:00,
2013-11-28 03:32:00,19.4,15.6,29.44,SW,228,2.7,3.6,85,0.00,,---,0.00,VWS V14.01,2013-11-28 08:32:00,
2013-11-28 03:34:00,19.4,15.6,29.44,WSW,252,2.2,2.7,85,0.00,,---,0.00,VWS V14.01,2013-11-28 08:34:00,
2013-11-28 03:35:00,19.4,15.6,29.44,WSW,252,2.7,2.7,85,0.00,,---,0.00,VWS V14.01,2013-11-28 08:35:00,
2013-11-28 03:36:00,19.4,15.6,29.44,WSW,244,2.7,3.6,85,0.00,,---,0.00,VWS V14.01,2013-11-28 08:36:00,
2013-11-28 03:37:00,19.4,15.6,29.44,WSW,250,2.7,3.1,85,0.00,,---,0.00,VWS V14.01,2013-11-28 08:37:00,
2013-11-28 03:38:00,19.4,15.6,29.44,WSW,246,2.7,2.7,85,0.00,,---,0.00,VWS V14.01,2013-11-28 08:38:00,
2013-11-28 03:39:00,19.4,15.6,29.44,West,268,3.6,3.6,85,0.00,,---,0.00,VWS V14.01,2013-11-28 08:39:00,
2013-11-28 03:40:00,19.4,15.6,29.44,West,267,0.0,0.0,85,0.00,,---,0.00,VWS V14.01,2013-11-28 08:40:00,
2013-11-28 03:41:00,19.4,15.6,29.44,WSW,246,2.7,3.1,85,0.00,,---,0.00,VWS V14.01,2013-11-28 08:41:00,
2013-11-28 03:42:00,19.4,15.6,29.44,WSW,246,0.0,0.0,85,0.00,,---,0.00,VWS V14.01,2013-11-28 08:42:00,
2013-11-28 03:43:00,19.4,15.6,29.44,WSW,246,0.0,0.0,85,0.00,,---,0.00,VWS V14.01,2013-11-28 08:43:00,
2013-11-28 03:44:00,19.4,15.6,29.44,WSW,246,0.0,0.0,85,0.00,,---,0.00,VWS V14.01,2013-11-28 08:44:00,
2013-11-28 03:45:00,19.4,15.6,29.44,WSW,246,0.0,0.0,85,0.00,,---,0.00,VWS V14.01,2013-11-28 08:45:00,
2013-11-28 03:46:00,19.2,15.5,29.44,WSW,246,0.0,0.0,85,0.00,,---,0.00,VWS V14.01,2013-11-28 08:46:00,
2013-11-28 03:47:00,19.2,15.5,29.44,WSW,246,0.0,0.0,85,0.00,,---,0.00,VWS V14.01,2013-11-28 08:47:00,
2013-11-28 03:48:00,19.2,15.5,29.44,WSW,245,0.0,0.0,85,0.00,,---,0.00,VWS V14.01,2013-11-28 08:48:00,
2013-11-28 03:49:00,19.2,15.5,29.44,WSW,243,4.0,4.0,85,0.00,,---,0.00,VWS V14.01,2013-11-28 08:49:00,
2013-11-28 03:50:00,19.2,15.5,29.44,WSW,250,3.6,3.6,85,0.00,,---,0.00,VWS V14.01,2013-11-28 08:50:00,
2013-11-28 03:51:00,19.4,15.6,29.44,WSW,258,3.1,3.6,85,0.00,,---,0.00,VWS V14.01,2013-11-28 08:51:00,
2013-11-28 03:52:00,19.4,15.6,29.44,WSW,246,2.7,4.9,85,0.00,,---,0.00,VWS V14.01,2013-11-28 08:52:00,
2013-11-28 03:53:00,19.4,15.6,29.44,WSW,249,3.1,3.1,85,0.00,,---,0.00,VWS V14.01,2013-11-28 08:53:00,
2013-11-28 03:54:00,19.4,15.6,29.41,WSW,248,0.0,2.2,85,0.00,,---,0.00,VWS V14.01,2013-11-28 08:54:00,
2013-11-28 03:55:00,19.4,15.6,29.41,WSW,248,0.0,2.2,85,0.00,,---,0.00,VWS V14.01,2013-11-28 08:55:00,
2013-11-28 03:56:00,19.4,15.6,29.41,WSW,248,0.0,0.0,85,0.00,,---,0.00,VWS V14.01,2013-11-28 08:56:00,
2013-11-28 03:57:00,19.4,15.6,29.41,WSW,237,0.0,0.0,85,0.00,,---,0.00,VWS V14.01,2013-11-28 08:57:00,
2013-11-28 03:58:00,19.4,15.6,29.41,West,260,0.0,0.0,85,0.00,,---,0.00,VWS V14.01,2013-11-28 08:58:00,
2013-11-28 03:59:00,19.4,15.6,29.41,WSW,252,0.0,0.0,85,0.00,,---,0.00,VWS V14.01,2013-11-28 08:59:00,
2013-11-28 04:00:00,19.4,15.6,29.41,WSW,255,4.0,4.0,85,0.00,,---,0.00,VWS V14.01,2013-11-28 09:00:00,
2013-11-28 04:01:00,19.4,15.6,29.41,WSW,251,2.2,2.2,85,0.00,,---,0.00,VWS V14.01,2013-11-28 09:01:00,
2013-11-28 04:02:00,19.4,15.6,29.41,WSW,248,2.2,4.0,85,0.00,,---,0.00,VWS V14.01,2013-11-28 09:02:00,
2013-11-28 04:03:00,19.4,15.6,29.41,WSW,248,3.1,4.0,85,0.00,,---,0.00,VWS V14.01,2013-11-28 09:03:00,
2013-11-28 04:04:00,19.4,15.6,29.41,West,265,3.1,3.1,85,0.00,,---,0.00,VWS V14.01,2013-11-28 09:04:00,
2013-11-28 04:06:00,19.4,15.6,29.41,SW,234,3.1,4.0,85,0.00,,---,0.00,VWS V14.01,2013-11-28 09:06:00,
2013-11-28 04:08:00,19.4,15.6,29.41,WSW,255,3.6,4.0,85,0.00,,---,0.00,VWS V14.01,2013-11-28 09:08:00,
2013-11-28 04:09:00,19.4,15.6,29.41,West,260,2.7,4.9,85,0.00,,---,0.00,VWS V14.01,2013-11-28 09:09:00,
2013-11-28 04:10:00,19.2,15.5,29.44,West,262,0.0,3.1,85,0.00,,---,0.00,VWS V14.01,2013-11-28 09:10:00,
2013-11-28 04:11:00,19.2,15.5,29.44,WSW,245,0.0,0.0,85,0.00,,---,0.00,VWS V14.01,2013-11-28 09:11:00,
2013-11-28 04:13:00,19.2,15.5,29.44,West,272,2.7,3.6,85,0.00,,---,0.00,VWS V14.01,2013-11-28 09:13:00,
2013-11-28 04:14:00,19.2,15.5,29.44,West,279,3.1,3.6,85,0.00,,---,0.00,VWS V14.01,2013-11-28 09:14:00,
2013-11-28 04:15:00,19.2,15.5,29.44,WSW,241,2.7,4.0,85,0.00,,---,0.00,VWS V14.01,2013-11-28 09:15:00,
2013-11-28 04:16:00,19.0,15.3,29.44,West,270,0.0,0.0,85,0.00,,---,0.00,VWS V14.01,2013-11-28 09:16:00,
2013-11-28 04:17:00,19.0,15.3,29.44,West,270,2.7,2.7,85,0.00,,---,0.00,VWS V14.01,2013-11-28 09:17:00,
2013-11-28 04:18:00,19.0,15.3,29.44,West,270,2.7,2.7,85,0.00,,---,0.00,VWS V14.01,2013-11-28 09:18:00,
2013-11-28 04:19:00,19.0,15.3,29.44,West,270,2.7,3.1,85,0.00,,---,0.00,VWS V14.01,2013-11-28 09:19:00,
2013-11-28 04:20:00,19.0,15.3,29.44,West,270,0.0,2.2,85,0.00,,---,0.00,VWS V14.01,2013-11-28 09:20:00,
2013-11-28 04:22:00,18.9,15.1,29.44,West,270,0.0,0.0,85,0.00,,---,0.00,VWS V14.01,2013-11-28 09:22:00,
2013-11-28 04:23:00,18.9,15.1,29.44,West,270,0.0,0.0,85,0.00,,---,0.00,VWS V14.01,2013-11-28 09:23:00,
2013-11-28 04:24:00,18.9,15.1,29.44,West,270,0.0,0.0,85,0.00,,---,0.00,VWS V14.01,2013-11-28 09:24:00,
2013-11-28 04:25:00,18.7,14.9,29.44,West,270,0.0,0.0,85,0.00,,---,0.00,VWS V14.01,2013-11-28 09:25:00,
2013-11-28 04:28:00,18.5,14.8,29.44,West,270,0.0,0.0,85,0.00,,---,0.00,VWS V14.01,2013-11-28 09:28:00,
2013-11-28 04:29:00,18.5,14.8,29.44,West,270,0.0,0.0,85,0.00,,---,0.00,VWS V14.01,2013-11-28 09:29:00,
2013-11-28 04:30:00,18.3,14.6,29.44,West,270,0.0,0.0,85,0.00,,---,0.00,VWS V14.01,2013-11-28 09:30:00,
2013-11-28 04:33:00,18.3,14.6,29.44,West,270,0.0,0.0,85,0.00,,---,0.00,VWS V14.01,2013-11-28 09:33:00,
2013-11-28 04:34:00,18.3,14.6,29.44,West,270,0.0,0.0,85,0.00,,---,0.00,VWS V14.01,2013-11-28 09:34:00,
2013-11-28 04:35:00,18.3,14.6,29.44,West,270,0.0,0.0,85,0.00,,---,0.00,VWS V14.01,2013-11-28 09:35:00,
2013-11-28 04:38:00,18.3,14.6,29.44,West,270,0.0,0.0,85,0.00,,---,0.00,VWS V14.01,2013-11-28 09:38:00,
2013-11-28 04:39:00,18.3,14.6,29.44,West,270,0.0,0.0,85,0.00,,---,0.00,VWS V14.01,2013-11-28 09:39:00,
2013-11-28 04:40:00,18.3,14.6,29.44,West,270,0.0,0.0,85,0.00,,---,0.00,VWS V14.01,2013-11-28 09:40:00,
2013-11-28 04:43:00,18.3,14.6,29.44,West,270,0.0,0.0,85,0.00,,---,0.00,VWS V14.01,2013-11-28 09:43:00,
2013-11-28 04:44:00,18.3,14.6,29.44,West,270,0.0,0.0,85,0.00,,---,0.00,VWS V14.01,2013-11-28 09:44:00,
2013-11-28 04:45:00,18.3,14.6,29.44,West,270,0.0,0.0,85,0.00,,---,0.00,VWS V14.01,2013-11-28 09:45:00,
2013-11-28 04:49:00,18.1,14.4,29.44,West,270,0.0,0.0,85,0.00,,---,0.00,VWS V14.01,2013-11-28 09:49:00,
2013-11-28 04:50:00,18.1,14.4,29.44,West,270,0.0,0.0,85,0.00,,---,0.00,VWS V14.01,2013-11-28 09:50:00,
2013-11-28 04:54:00,18.1,14.4,29.44,West,270,0.0,0.0,85,0.00,,---,0.00,VWS V14.01,2013-11-28 09:54:00,
2013-11-28 04:55:00,18.1,14.4,29.44,West,270,0.0,0.0,85,0.00,,---,0.00,VWS V14.01,2013-11-28 09:55:00,
2013-11-28 04:59:00,18.1,14.4,29.44,West,270,0.0,0.0,85,0.00,,---,0.00,VWS V14.01,2013-11-28 09:59:00,
2013-11-28 05:00:00,18.1,14.4,29.44,West,270,0.0,0.0,85,0.00,,---,0.00,VWS V14.01,2013-11-28 10:00:00,
2013-11-28 05:04:00,18.1,14.4,29.44,West,270,0.0,0.0,85,0.00,,---,0.00,VWS V14.01,2013-11-28 10:04:00,
2013-11-28 05:05:00,18.1,14.4,29.44,West,270,0.0,0.0,85,0.00,,---,0.00,VWS V14.01,2013-11-28 10:05:00,
2013-11-28 05:06:00,18.1,14.4,29.44,West,270,0.0,0.0,85,0.00,,---,0.00,VWS V14.01,2013-11-28 10:06:00,
2013-11-28 05:09:00,17.8,14.0,29.44,West,270,0.0,0.0,85,0.00,,---,0.00,VWS V14.01,2013-11-28 10:09:00,
2013-11-28 05:10:00,17.8,14.0,29.47,West,270,0.0,0.0,85,0.00,,---,0.00,VWS V14.01,2013-11-28 10:10:00,
2013-11-28 05:11:00,17.8,14.0,29.47,West,270,0.0,0.0,85,0.00,,---,0.00,VWS V14.01,2013-11-28 10:11:00,
2013-11-28 05:14:00,18.0,14.2,29.47,West,270,0.0,0.0,85,0.00,,---,0.00,VWS V14.01,2013-11-28 10:14:00,
2013-11-28 05:15:00,18.0,14.2,29.47,West,270,0.0,0.0,85,0.00,,---,0.00,VWS V14.01,2013-11-28 10:15:00,
2013-11-28 05:16:00,18.0,14.2,29.47,West,270,0.0,0.0,85,0.00,,---,0.00,VWS V14.01,2013-11-28 10:16:00,
2013-11-28 05:19:00,18.1,14.4,29.47,West,270,0.0,0.0,85,0.00,,---,0.00,VWS V14.01,2013-11-28 10:19:00,
2013-11-28 05:20:00,18.1,14.4,29.47,West,270,0.0,0.0,85,0.00,,---,0.00,VWS V14.01,2013-11-28 10:20:00,
2013-11-28 05:21:00,18.1,14.4,29.47,West,270,0.0,0.0,85,0.00,,---,0.00,VWS V14.01,2013-11-28 10:21:00,
2013-11-28 05:24:00,18.1,14.4,29.44,West,270,0.0,0.0,85,0.00,,---,0.00,VWS V14.01,2013-11-28 10:24:00,
2013-11-28 05:25:00,18.1,14.4,29.44,West,270,0.0,0.0,85,0.00,,---,0.00,VWS V14.01,2013-11-28 10:25:00,
2013-11-28 05:26:00,18.1,14.4,29.44,West,270,0.0,0.0,85,0.00,,---,0.00,VWS V14.01,2013-11-28 10:26:00,
2013-11-28 05:27:00,18.1,14.4,29.44,West,270,0.0,0.0,85,0.00,,---,0.00,VWS V14.01,2013-11-28 10:27:00,
2013-11-28 05:29:00,18.1,14.4,29.44,West,270,0.0,0.0,85,0.00,,---,0.00,VWS V14.01,2013-11-28 10:29:00,
2013-11-28 05:30:00,18.1,14.4,29.44,West,270,0.0,0.0,85,0.00,,---,0.00,VWS V14.01,2013-11-28 10:30:00,
2013-11-28 05:31:00,18.1,14.4,29.44,West,270,0.0,0.0,85,0.00,,---,0.00,VWS V14.01,2013-11-28 10:31:00,
2013-11-28 05:33:00,18.1,14.4,29.44,West,270,0.0,0.0,85,0.00,,---,0.00,VWS V14.01,2013-11-28 10:33:00,
2013-11-28 05:34:00,18.1,14.4,29.44,West,270,0.0,0.0,85,0.00,,---,0.00,VWS V14.01,2013-11-28 10:34:00,
2013-11-28 05:35:00,18.1,14.4,29.44,West,270,0.0,0.0,85,0.00,,---,0.00,VWS V14.01,2013-11-28 10:35:00,
2013-11-28 05:36:00,18.1,14.4,29.44,West,270,0.0,0.0,85,0.00,,---,0.00,VWS V14.01,2013-11-28 10:36:00,
2013-11-28 05:38:00,18.1,14.4,29.44,West,270,0.0,0.0,85,0.00,,---,0.00,VWS V14.01,2013-11-28 10:38:00,
2013-11-28 05:40:00,18.1,14.4,29.47,West,270,0.0,0.0,85,0.00,,---,0.00,VWS V14.01,2013-11-28 10:40:00,
2013-11-28 05:41:00,18.1,14.4,29.47,West,270,0.0,0.0,85,0.00,,---,0.00,VWS V14.01,2013-11-28 10:41:00,
2013-11-28 05:42:00,18.1,14.4,29.47,West,270,0.0,0.0,85,0.00,,---,0.00,VWS V14.01,2013-11-28 10:42:00,
2013-11-28 05:43:00,18.3,14.6,29.47,West,270,0.0,0.0,85,0.00,,---,0.00,VWS V14.01,2013-11-28 10:43:00,
2013-11-28 05:45:00,18.3,14.6,29.47,West,270,0.0,0.0,85,0.00,,---,0.00,VWS V14.01,2013-11-28 10:45:00,
2013-11-28 05:46:00,18.3,14.6,29.47,West,270,0.0,0.0,85,0.00,,---,0.00,VWS V14.01,2013-11-28 10:46:00,
2013-11-28 05:48:00,18.5,14.8,29.47,West,270,0.0,0.0,85,0.00,,---,0.00,VWS V14.01,2013-11-28 10:48:00,
2013-11-28 05:50:00,18.5,14.8,29.47,West,270,0.0,0.0,85,0.00,,---,0.00,VWS V14.01,2013-11-28 10:50:00,
2013-11-28 05:51:00,18.5,14.8,29.47,West,270,0.0,0.0,85,0.00,,---,0.00,VWS V14.01,2013-11-28 10:51:00,
2013-11-28 05:52:00,18.5,14.8,29.47,West,270,0.0,0.0,85,0.00,,---,0.00,VWS V14.01,2013-11-28 10:52:00,
2013-11-28 05:53:00,18.7,14.9,29.47,West,270,0.0,0.0,85,0.00,,---,0.00,VWS V14.01,2013-11-28 10:53:00,
2013-11-28 05:55:00,18.7,14.9,29.47,West,270,0.0,0.0,85,0.00,,---,0.00,VWS V14.01,2013-11-28 10:55:00,
2013-11-28 05:56:00,18.7,14.9,29.47,WSW,244,3.6,5.8,85,0.00,,---,0.00,VWS V14.01,2013-11-28 10:56:00,
2013-11-28 05:57:00,18.7,14.9,29.47,WSW,238,3.6,5.8,85,0.00,,---,0.00,VWS V14.01,2013-11-28 10:57:00,
2013-11-28 05:58:00,18.7,14.9,29.47,SW,214,4.0,4.0,85,0.00,,---,0.00,VWS V14.01,2013-11-28 10:58:00,
2013-11-28 06:01:00,18.9,15.1,29.47,SW,234,2.7,3.6,85,0.00,,---,0.00,VWS V14.01,2013-11-28 11:01:00,
2013-11-28 06:02:00,18.9,15.1,29.47,SW,216,2.7,2.7,85,0.00,,---,0.00,VWS V14.01,2013-11-28 11:02:00,
2013-11-28 06:03:00,18.9,15.1,29.47,SW,232,4.0,4.0,85,0.00,,---,0.00,VWS V14.01,2013-11-28 11:03:00,
2013-11-28 06:04:00,18.9,15.1,29.47,SW,231,2.7,4.0,85,0.00,,---,0.00,VWS V14.01,2013-11-28 11:04:00,
2013-11-28 06:06:00,18.9,15.1,29.47,SW,231,0.0,0.0,85,0.00,,---,0.00,VWS V14.01,2013-11-28 11:06:00,
2013-11-28 06:07:00,18.7,14.9,29.47,SW,231,0.0,0.0,85,0.00,,---,0.00,VWS V14.01,2013-11-28 11:07:00,
2013-11-28 06:08:00,18.7,14.9,29.47,SSW,210,0.0,0.0,85,0.00,,---,0.00,VWS V14.01,2013-11-28 11:08:00,
2013-11-28 06:09:00,18.7,14.9,29.47,SW,235,0.0,0.0,85,0.00,,---,0.00,VWS V14.01,2013-11-28 11:09:00,
2013-11-28 06:11:00,18.5,14.8,29.44,SW,226,0.0,0.0,85,0.00,,---,0.00,VWS V14.01,2013-11-28 11:11:00,
2013-11-28 06:12:00,18.5,14.8,29.44,SW,227,0.0,0.0,85,0.00,,---,0.00,VWS V14.01,2013-11-28 11:12:00,
2013-11-28 06:13:00,18.5,14.8,29.44,SW,226,0.0,0.0,85,0.00,,---,0.00,VWS V14.01,2013-11-28 11:13:00,
2013-11-28 06:14:00,18.3,14.6,29.44,SW,226,0.0,0.0,85,0.00,,---,0.00,VWS V14.01,2013-11-28 11:14:00,
2013-11-28 06:16:00,18.3,14.6,29.44,WSW,250,0.0,0.0,85,0.00,,---,0.00,VWS V14.01,2013-11-28 11:16:00,
2013-11-28 06:17:00,18.3,14.6,29.44,WSW,250,0.0,0.0,85,0.00,,---,0.00,VWS V14.01,2013-11-28 11:17:00,
2013-11-28 06:18:00,18.3,14.6,29.44,WSW,248,0.0,0.0,85,0.00,,---,0.00,VWS V14.01,2013-11-28 11:18:00,
2013-11-28 06:19:00,18.3,14.6,29.44,WSW,248,0.0,0.0,85,0.00,,---,0.00,VWS V14.01,2013-11-28 11:19:00,
2013-11-28 06:21:00,18.3,14.6,29.44,WSW,248,0.0,0.0,85,0.00,,---,0.00,VWS V14.01,2013-11-28 11:21:00,
2013-11-28 06:22:00,18.3,14.6,29.44,WSW,248,0.0,0.0,85,0.00,,---,0.00,VWS V14.01,2013-11-28 11:22:00,
2013-11-28 06:24:00,18.3,14.6,29.44,WSW,248,0.0,0.0,85,0.00,,---,0.00,VWS V14.01,2013-11-28 11:24:00,
2013-11-28 06:26:00,18.1,14.4,29.47,WSW,248,0.0,0.0,85,0.00,,---,0.00,VWS V14.01,2013-11-28 11:26:00,
2013-11-28 06:27:00,18.1,14.4,29.47,WSW,248,0.0,0.0,85,0.00,,---,0.00,VWS V14.01,2013-11-28 11:27:00,
2013-11-28 06:29:00,18.1,14.4,29.47,WSW,248,0.0,0.0,85,0.00,,---,0.00,VWS V14.01,2013-11-28 11:29:00,
2013-11-28 06:30:00,18.1,14.4,29.47,WSW,248,0.0,0.0,85,0.00,,---,0.00,VWS V14.01,2013-11-28 11:30:00,
2013-11-28 06:31:00,18.1,14.4,29.47,WSW,248,0.0,0.0,85,0.00,,---,0.00,VWS V14.01,2013-11-28 11:31:00,
2013-11-28 06:32:00,18.1,14.4,29.47,WSW,248,0.0,0.0,85,0.00,,---,0.00,VWS V14.01,2013-11-28 11:32:00,
2013-11-28 06:34:00,18.1,14.4,29.47,WSW,248,0.0,0.0,85,0.00,,---,0.00,VWS V14.01,2013-11-28 11:34:00,
2013-11-28 06:35:00,18.1,14.4,29.47,WSW,248,0.0,0.0,85,0.00,,---,0.00,VWS V14.01,2013-11-28 11:35:00,
2013-11-28 06:36:00,18.3,14.6,29.47,WSW,248,0.0,0.0,85,0.00,,---,0.00,VWS V14.01,2013-11-28 11:36:00,
2013-11-28 06:37:00,18.3,14.6,29.47,WSW,248,0.0,0.0,85,0.00,,---,0.00,VWS V14.01,2013-11-28 11:37:00,
2013-11-28 06:38:00,18.3,14.6,29.47,WSW,248,0.0,0.0,85,0.00,,---,0.00,VWS V14.01,2013-11-28 11:38:00,
2013-11-28 06:39:00,18.3,14.6,29.47,WSW,248,0.0,0.0,85,0.00,,---,0.00,VWS V14.01,2013-11-28 11:39:00,
2013-11-28 06:40:00,18.3,14.6,29.47,SW,233,0.0,0.0,85,0.00,,---,0.00,VWS V14.01,2013-11-28 11:40:00,
2013-11-28 06:41:00,18.5,14.8,29.47,SW,233,2.7,3.1,85,0.00,,---,0.00,VWS V14.01,2013-11-28 11:41:00,
2013-11-28 06:42:00,18.5,14.8,29.47,SW,233,0.0,0.0,85,0.00,,---,0.00,VWS V14.01,2013-11-28 11:42:00,
2013-11-28 06:43:00,18.5,14.8,29.47,SW,233,0.0,0.0,85,0.00,,---,0.00,VWS V14.01,2013-11-28 11:43:00,
2013-11-28 06:45:00,18.5,14.8,29.47,SW,233,0.0,0.0,85,0.00,,---,0.00,VWS V14.01,2013-11-28 11:45:00,
2013-11-28 06:46:00,18.5,14.8,29.47,SW,233,0.0,0.0,85,0.00,,---,0.00,VWS V14.01,2013-11-28 11:46:00,
2013-11-28 06:48:00,18.5,14.8,29.47,SW,233,0.0,0.0,85,0.00,,---,0.00,VWS V14.01,2013-11-28 11:48:00,
2013-11-28 06:50:00,18.7,14.9,29.47,SW,233,0.0,0.0,85,0.00,,---,0.00,VWS V14.01,2013-11-28 11:50:00,
2013-11-28 06:51:00,18.7,14.9,29.47,SW,233,0.0,0.0,85,0.00,,---,0.00,VWS V14.01,2013-11-28 11:51:00,
2013-11-28 06:53:00,18.7,14.9,29.47,SW,233,0.0,0.0,85,0.00,,---,0.00,VWS V14.01,2013-11-28 11:53:00,
2013-11-28 06:55:00,18.7,14.9,29.47,SW,233,0.0,0.0,85,0.00,,---,0.00,VWS V14.01,2013-11-28 11:55:00,
2013-11-28 06:56:00,18.7,14.9,29.47,SW,233,0.0,0.0,85,0.00,,---,0.00,VWS V14.01,2013-11-28 11:56:00,
2013-11-28 06:57:00,18.7,14.9,29.47,SW,233,0.0,0.0,85,0.00,,---,0.00,VWS V14.01,2013-11-28 11:57:00,
2013-11-28 06:58:00,18.7,14.9,29.47,SW,233,0.0,0.0,85,0.00,,---,0.00,VWS V14.01,2013-11-28 11:58:00,
2013-11-28 07:00:00,18.7,14.9,29.47,SW,233,0.0,0.0,85,0.00,,---,0.00,VWS V14.01,2013-11-28 12:00:00,
2013-11-28 07:01:00,18.7,14.9,29.47,SW,233,0.0,0.0,85,0.00,,---,0.00,VWS V14.01,2013-11-28 12:01:00,
2013-11-28 07:02:00,18.7,14.9,29.47,SW,233,0.0,0.0,85,0.00,,---,0.00,VWS V14.01,2013-11-28 12:02:00,
2013-11-28 07:03:00,18.7,14.9,29.47,SW,233,0.0,0.0,85,0.00,,---,0.00,VWS V14.01,2013-11-28 12:03:00,
2013-11-28 07:04:00,18.9,15.1,29.47,SW,233,0.0,0.0,85,0.00,,---,0.00,VWS V14.01,2013-11-28 12:04:00,
2013-11-28 07:06:00,18.9,15.1,29.47,SW,233,0.0,0.0,85,0.00,,---,0.00,VWS V14.01,2013-11-28 12:06:00,
2013-11-28 07:07:00,19.0,15.3,29.47,SW,233,0.0,0.0,85,0.00,,---,0.00,VWS V14.01,2013-11-28 12:07:00,
2013-11-28 07:08:00,19.0,15.3,29.47,SW,233,0.0,0.0,85,0.00,,---,0.00,VWS V14.01,2013-11-28 12:08:00,
2013-11-28 07:09:00,19.0,15.3,29.47,SW,233,0.0,0.0,85,0.00,,---,0.00,VWS V14.01,2013-11-28 12:09:00,
2013-11-28 07:11:00,19.0,15.3,29.50,SW,233,2.7,2.7,85,0.00,,---,0.00,VWS V14.01,2013-11-28 12:11:00,
2013-11-28 07:12:00,19.2,15.5,29.50,SW,233,0.0,0.0,85,0.00,,---,0.00,VWS V14.01,2013-11-28 12:12:00,
2013-11-28 07:14:00,19.2,15.5,29.50,SW,233,0.0,0.0,85,0.00,,---,0.00,VWS V14.01,2013-11-28 12:14:00,
2013-11-28 07:16:00,19.2,15.5,29.50,SW,232,3.1,3.1,85,0.00,,---,0.00,VWS V14.01,2013-11-28 12:16:00,
2013-11-28 07:17:00,19.2,15.5,29.50,SW,233,2.2,3.6,85,0.00,,---,0.00,VWS V14.01,2013-11-28 12:17:00,
2013-11-28 07:19:00,19.2,15.5,29.50,SW,233,3.1,3.1,85,0.00,,---,0.00,VWS V14.01,2013-11-28 12:19:00,
2013-11-28 07:21:00,19.2,15.5,29.50,SW,227,0.0,2.7,85,0.00,,---,0.00,VWS V14.01,2013-11-28 12:21:00,
2013-11-28 07:22:00,19.2,15.5,29.50,SW,227,0.0,2.7,85,0.00,,---,0.00,VWS V14.01,2013-11-28 12:22:00,
2013-11-28 07:24:00,19.2,15.5,29.50,SW,222,2.7,2.7,85,0.00,,---,0.00,VWS V14.01,2013-11-28 12:24:00,
2013-11-28 07:26:00,19.2,15.5,29.50,SW,222,3.1,3.1,85,0.00,,---,0.00,VWS V14.01,2013-11-28 12:26:00,
2013-11-28 07:27:00,19.2,15.5,29.50,SW,222,0.0,3.1,85,0.00,,---,0.00,VWS V14.01,2013-11-28 12:27:00,
2013-11-28 07:29:00,19.2,15.5,29.50,SW,222,3.6,3.6,85,0.00,,---,0.00,VWS V14.01,2013-11-28 12:29:00,
2013-11-28 07:32:00,19.2,15.5,29.50,SW,222,3.1,4.0,85,0.00,,---,0.00,VWS V14.01,2013-11-28 12:32:00,
2013-11-28 07:33:00,19.2,15.5,29.50,SW,222,3.1,3.1,85,0.00,,---,0.00,VWS V14.01,2013-11-28 12:33:00,
2013-11-28 07:34:00,19.2,15.5,29.50,SW,222,2.7,2.7,85,0.00,,---,0.00,VWS V14.01,2013-11-28 12:34:00,
2013-11-28 07:37:00,19.2,15.5,29.50,SW,222,0.0,0.0,85,0.00,,---,0.00,VWS V14.01,2013-11-28 12:37:00,
2013-11-28 07:38:00,19.2,15.5,29.50,SW,222,0.0,0.0,85,0.00,,---,0.00,VWS V14.01,2013-11-28 12:38:00,
2013-11-28 07:39:00,19.2,15.5,29.50,SW,222,0.0,0.0,85,0.00,,---,0.00,VWS V14.01,2013-11-28 12:39:00,
2013-11-28 07:40:00,19.2,15.5,29.50,SW,222,0.0,0.0,85,0.00,,---,0.00,VWS V14.01,2013-11-28 12:40:00,
2013-11-28 07:42:00,19.4,15.6,29.50,SW,222,0.0,0.0,85,0.00,,---,0.00,VWS V14.01,2013-11-28 12:42:00,
2013-11-28 07:43:00,19.4,15.6,29.50,SW,222,0.0,0.0,85,0.00,,---,0.00,VWS V14.01,2013-11-28 12:43:00,
2013-11-28 07:44:00,19.4,15.6,29.50,SW,222,0.0,0.0,85,0.00,,---,0.00,VWS V14.01,2013-11-28 12:44:00,
2013-11-28 07:45:00,19.4,15.6,29.50,SW,222,0.0,0.0,85,0.00,,---,0.00,VWS V14.01,2013-11-28 12:45:00,
2013-11-28 07:47:00,19.4,15.6,29.50,SW,222,0.0,0.0,85,0.00,,---,0.00,VWS V14.01,2013-11-28 12:47:00,
2013-11-28 07:48:00,19.4,15.6,29.50,SW,222,0.0,0.0,85,0.00,,---,0.00,VWS V14.01,2013-11-28 12:48:00,
2013-11-28 07:49:00,19.4,15.6,29.50,SW,222,0.0,0.0,85,0.00,,---,0.00,VWS V14.01,2013-11-28 12:49:00,
2013-11-28 07:50:00,19.4,15.6,29.50,SW,222,0.0,0.0,85,0.00,,---,0.00,VWS V14.01,2013-11-28 12:50:00,
2013-11-28 07:52:00,19.4,15.6,29.50,SW,222,0.0,0.0,85,0.00,,---,0.00,VWS V14.01,2013-11-28 12:52:00,
2013-11-28 07:53:00,19.4,15.6,29.50,SW,222,0.0,0.0,85,0.00,,---,0.00,VWS V14.01,2013-11-28 12:53:00,
2013-11-28 07:54:00,19.6,15.8,29.50,SW,222,0.0,0.0,85,0.00,,---,0.00,VWS V14.01,2013-11-28 12:54:00,
2013-11-28 07:55:00,19.6,15.8,29.50,SW,222,0.0,0.0,85,0.00,,---,0.00,VWS V14.01,2013-11-28 12:55:00,
2013-11-28 07:57:00,19.6,15.8,29.50,SSW,213,4.0,5.4,85,0.00,,---,0.00,VWS V14.01,2013-11-28 12:57:00,
2013-11-28 07:58:00,19.6,15.8,29.50,SSW,213,2.7,4.0,85,0.00,,---,0.00,VWS V14.01,2013-11-28 12:58:00,
2013-11-28 07:59:00,19.8,16.0,29.50,SSW,213,3.1,3.1,85,0.00,,---,0.00,VWS V14.01,2013-11-28 12:59:00,
2013-11-28 08:00:00,19.8,16.0,29.50,SSW,213,0.0,0.0,85,0.00,,---,0.00,VWS V14.01,2013-11-28 13:00:00,
2013-11-28 08:03:00,19.8,16.0,29.50,SSW,213,0.0,3.1,85,0.00,,---,0.00,VWS V14.01,2013-11-28 13:03:00,
2013-11-28 08:04:00,19.9,16.2,29.50,SSW,213,0.0,0.0,85,0.00,,---,0.00,VWS V14.01,2013-11-28 13:04:00,
2013-11-28 08:05:00,20.1,16.3,29.50,SSW,213,0.0,0.0,85,0.00,,---,0.00,VWS V14.01,2013-11-28 13:05:00,
2013-11-28 08:08:00,20.1,16.3,29.50,SSW,213,0.0,0.0,85,0.00,,---,0.00,VWS V14.01,2013-11-28 13:08:00,
2013-11-28 08:09:00,20.1,16.3,29.50,SSW,213,0.0,0.0,85,0.00,,---,0.00,VWS V14.01,2013-11-28 13:09:00,
2013-11-28 08:10:00,20.3,16.5,29.50,SSW,213,0.0,0.0,85,0.00,,---,0.00,VWS V14.01,2013-11-28 13:10:00,
2013-11-28 08:11:00,20.3,16.5,29.50,SSW,213,0.0,0.0,85,0.00,,---,0.00,VWS V14.01,2013-11-28 13:11:00,
2013-11-28 08:13:00,20.3,16.5,29.50,SW,224,2.7,4.0,85,0.00,,---,0.00,VWS V14.01,2013-11-28 13:13:00,
2013-11-28 08:14:00,20.5,16.7,29.50,SW,217,3.6,4.0,85,0.00,,---,0.00,VWS V14.01,2013-11-28 13:14:00,
2013-11-28 08:15:00,20.5,16.7,29.50,West,260,3.1,3.6,85,0.00,,---,0.00,VWS V14.01,2013-11-28 13:15:00,
2013-11-28 08:16:00,20.7,16.9,29.50,South,191,3.6,3.6,85,0.00,,---,0.00,VWS V14.01,2013-11-28 13:16:00,
2013-11-28 08:18:00,20.7,16.9,29.50,SW,215,3.6,3.6,85,0.00,,---,0.00,VWS V14.01,2013-11-28 13:18:00,
2013-11-28 08:19:00,20.7,16.9,29.50,WSW,237,2.2,4.0,85,0.00,,---,0.00,VWS V14.01,2013-11-28 13:19:00,
2013-11-28 08:20:00,20.8,17.0,29.50,SSW,204,3.6,4.0,85,0.00,,---,0.00,VWS V14.01,2013-11-28 13:20:00,
2013-11-28 08:21:00,20.8,17.0,29.50,SSW,207,4.0,4.0,85,0.00,,---,0.00,VWS V14.01,2013-11-28 13:21:00,
2013-11-28 08:23:00,20.8,17.0,29.50,SSW,213,2.7,3.6,85,0.00,,---,0.00,VWS V14.01,2013-11-28 13:23:00,
2013-11-28 08:24:00,20.8,17.0,29.50,SW,218,3.6,4.9,85,0.00,,---,0.00,VWS V14.01,2013-11-28 13:24:00,
2013-11-28 08:25:00,20.8,17.0,29.50,SW,214,2.7,4.0,85,0.00,,---,0.00,VWS V14.01,2013-11-28 13:25:00,
2013-11-28 08:26:00,20.8,17.0,29.50,WSW,244,3.1,3.6,85,0.00,,---,0.00,VWS V14.01,2013-11-28 13:26:00,
2013-11-28 08:28:00,21.0,17.2,29.50,SW,216,6.3,6.3,85,0.00,,---,0.00,VWS V14.01,2013-11-28 13:28:00,
2013-11-28 08:29:00,21.0,17.2,29.50,SSW,202,4.9,4.9,85,0.00,,---,0.00,VWS V14.01,2013-11-28 13:29:00,
2013-11-28 08:30:00,21.0,17.2,29.50,SW,214,5.4,5.4,85,0.00,,---,0.00,VWS V14.01,2013-11-28 13:30:00,
2013-11-28 08:31:00,21.0,17.2,29.50,SSW,211,2.2,3.1,85,0.00,,---,0.00,VWS V14.01,2013-11-28 13:31:00,
2013-11-28 08:33:00,21.0,17.2,29.50,SW,219,3.6,6.3,85,0.00,,---,0.00,VWS V14.01,2013-11-28 13:33:00,
2013-11-28 08:34:00,21.0,17.2,29.50,SW,215,3.1,4.0,85,0.00,,---,0.00,VWS V14.01,2013-11-28 13:34:00,
2013-11-28 08:35:00,21.0,17.2,29.50,SSW,209,3.1,4.0,85,0.00,,---,0.00,VWS V14.01,2013-11-28 13:35:00,
2013-11-28 08:36:00,21.2,17.4,29.50,WSW,240,3.6,4.0,85,0.00,,---,0.00,VWS V14.01,2013-11-28 13:36:00,
2013-11-28 08:37:00,21.2,17.4,29.50,South,191,4.0,4.0,85,0.00,,---,0.00,VWS V14.01,2013-11-28 13:37:00,
2013-11-28 08:38:00,21.2,17.4,29.50,SSW,203,4.9,5.8,85,0.00,,---,0.00,VWS V14.01,2013-11-28 13:38:00,
2013-11-28 08:40:00,21.2,17.4,29.50,SW,231,4.0,4.0,85,0.00,,---,0.00,VWS V14.01,2013-11-28 13:40:00,
2013-11-28 08:41:00,21.4,17.6,29.50,SW,233,3.6,4.0,85,0.00,,---,0.00,VWS V14.01,2013-11-28 13:41:00,
2013-11-28 08:42:00,21.4,17.6,29.50,SSW,203,5.4,5.4,85,0.00,,---,0.00,VWS V14.01,2013-11-28 13:42:00,
2013-11-28 08:43:00,21.6,17.8,29.50,WSW,238,4.0,4.0,85,0.00,,---,0.00,VWS V14.01,2013-11-28 13:43:00,
2013-11-28 08:45:00,21.6,17.8,29.50,SW,226,2.2,3.6,85,0.00,,---,0.00,VWS V14.01,2013-11-28 13:45:00,
2013-11-28 08:46:00,21.7,17.9,29.50,SW,226,0.0,3.1,85,0.00,,---,0.00,VWS V14.01,2013-11-28 13:46:00,
2013-11-28 08:47:00,21.7,17.9,29.50,SW,217,3.1,6.3,85,0.00,,---,0.00,VWS V14.01,2013-11-28 13:47:00,
2013-11-28 08:48:00,21.9,18.1,29.50,SW,222,4.0,4.0,85,0.00,,---,0.00,VWS V14.01,2013-11-28 13:48:00,
2013-11-28 08:50:00,21.9,18.1,29.50,SW,234,4.9,4.9,85,0.00,,---,0.00,VWS V14.01,2013-11-28 13:50:00,
2013-11-28 08:51:00,21.9,18.1,29.50,SW,216,5.8,5.8,85,0.00,,---,0.00,VWS V14.01,2013-11-28 13:51:00,
2013-11-28 08:52:00,21.9,18.1,29.50,SSW,198,6.3,6.3,85,0.00,,---,0.00,VWS V14.01,2013-11-28 13:52:00,
2013-11-28 08:53:00,21.9,18.1,29.50,SW,222,4.9,4.9,85,0.00,,---,0.00,VWS V14.01,2013-11-28 13:53:00,
2013-11-28 08:55:00,22.3,18.5,29.50,SW,215,2.7,3.1,85,0.00,,---,0.00,VWS V14.01,2013-11-28 13:55:00,
2013-11-28 08:56:00,22.3,18.5,29.50,West,265,4.5,4.5,85,0.00,,---,0.00,VWS V14.01,2013-11-28 13:56:00,
2013-11-28 08:57:00,22.6,18.8,29.50,SW,220,3.1,4.9,85,0.00,,---,0.00,VWS V14.01,2013-11-28 13:57:00,
2013-11-28 08:59:00,22.8,19.0,29.50,SW,224,3.1,5.8,85,0.00,,---,0.00,VWS V14.01,2013-11-28 13:59:00,
2013-11-28 09:00:00,22.8,19.0,29.50,SSW,209,5.4,5.4,85,0.00,,---,0.00,VWS V14.01,2013-11-28 14:00:00,
2013-11-28 09:01:00,22.8,19.0,29.50,SSW,209,5.4,5.4,85,0.00,,---,0.00,VWS V14.01,2013-11-28 14:01:00,
2013-11-28 09:02:00,23.0,19.2,29.50,SSW,204,2.7,4.0,85,0.00,,---,0.00,VWS V14.01,2013-11-28 14:02:00,
2013-11-28 09:04:00,23.0,19.2,29.50,WSW,258,2.2,2.2,85,0.00,,---,0.00,VWS V14.01,2013-11-28 14:04:00,
2013-11-28 09:06:00,23.0,19.2,29.50,SSW,211,4.0,4.0,85,0.00,,---,0.00,VWS V14.01,2013-11-28 14:06:00,
2013-11-28 09:07:00,22.8,19.0,29.50,SW,215,3.1,5.4,85,0.00,,---,0.00,VWS V14.01,2013-11-28 14:07:00,
2013-11-28 09:08:00,22.8,19.0,29.50,WSW,252,3.1,3.1,85,0.00,,---,0.00,VWS V14.01,2013-11-28 14:08:00,
2013-11-28 09:09:00,22.6,18.8,29.50,SSW,203,5.4,5.4,85,0.00,,---,0.00,VWS V14.01,2013-11-28 14:09:00,
2013-11-28 09:11:00,22.6,18.8,29.50,South,187,4.5,5.4,85,0.00,,---,0.00,VWS V14.01,2013-11-28 14:11:00,
2013-11-28 09:12:00,22.6,18.8,29.50,SW,214,2.7,4.5,85,0.00,,---,0.00,VWS V14.01,2013-11-28 14:12:00,
2013-11-28 09:13:00,22.8,19.0,29.50,SW,225,4.0,5.8,85,0.00,,---,0.00,VWS V14.01,2013-11-28 14:13:00,
2013-11-28 09:14:00,22.8,19.0,29.50,WSW,238,6.3,8.1,85,0.00,,---,0.00,VWS V14.01,2013-11-28 14:14:00,
2013-11-28 09:16:00,23.0,19.2,29.50,SW,227,3.1,3.1,85,0.00,,---,0.00,VWS V14.01,2013-11-28 14:16:00,
2013-11-28 09:17:00,23.2,19.1,29.50,WSW,253,4.0,4.0,84,0.00,,---,0.00,VWS V14.01,2013-11-28 14:17:00,
2013-11-28 09:18:00,23.4,19.2,29.50,West,262,3.6,5.4,84,0.00,,---,0.00,VWS V14.01,2013-11-28 14:18:00,
2013-11-28 09:20:00,23.4,19.2,29.50,SW,226,5.4,5.8,84,0.00,,---,0.00,VWS V14.01,2013-11-28 14:20:00,
2013-11-28 09:21:00,23.5,19.4,29.50,SW,230,2.7,5.4,84,0.00,,---,0.00,VWS V14.01,2013-11-28 14:21:00,
2013-11-28 09:22:00,23.7,19.6,29.50,SSW,205,4.0,5.4,84,0.00,,---,0.00,VWS V14.01,2013-11-28 14:22:00,
2013-11-28 09:23:00,23.9,19.8,29.50,WSW,240,5.4,5.4,84,0.00,,---,0.00,VWS V14.01,2013-11-28 14:23:00,
2013-11-28 09:25:00,24.1,20.0,29.53,SW,217,0.0,0.0,84,0.00,,---,0.00,VWS V14.01,2013-11-28 14:25:00,
2013-11-28 09:26:00,24.4,20.3,29.53,WSW,254,2.7,2.7,84,0.00,,---,0.00,VWS V14.01,2013-11-28 14:26:00,
2013-11-28 09:27:00,24.4,20.3,29.53,SW,220,2.7,4.9,84,0.00,,---,0.00,VWS V14.01,2013-11-28 14:27:00,
2013-11-28 09:28:00,24.6,20.5,29.53,SW,214,5.4,6.3,84,0.00,,---,0.00,VWS V14.01,2013-11-28 14:28:00,
2013-11-28 09:30:00,24.6,20.5,29.53,West,264,3.1,3.6,84,0.00,,---,0.00,VWS V14.01,2013-11-28 14:30:00,
2013-11-28 09:31:00,24.6,20.5,29.53,SSW,208,0.0,2.2,84,0.00,,---,0.00,VWS V14.01,2013-11-28 14:31:00,
2013-11-28 09:32:00,25.0,20.8,29.53,WSW,244,5.4,5.8,84,0.00,,---,0.00,VWS V14.01,2013-11-28 14:32:00,
2013-11-28 09:34:00,25.2,21.0,29.53,SW,219,4.0,4.0,84,0.00,,---,0.00,VWS V14.01,2013-11-28 14:34:00,
2013-11-28 09:35:00,25.3,21.2,29.53,SSW,209,5.4,5.4,84,0.00,,---,0.00,VWS V14.01,2013-11-28 14:35:00,
2013-11-28 09:36:00,25.5,21.4,29.53,West,265,0.0,0.0,84,0.00,,---,0.00,VWS V14.01,2013-11-28 14:36:00,
2013-11-28 09:37:00,25.7,21.5,29.53,SSW,201,5.4,5.4,84,0.00,,---,0.00,VWS V14.01,2013-11-28 14:37:00,
2013-11-28 09:39:00,25.9,21.7,29.53,WSW,239,3.1,4.0,84,0.00,,---,0.00,VWS V14.01,2013-11-28 14:39:00,
2013-11-28 09:41:00,25.9,21.7,29.50,SW,223,4.0,4.9,84,0.00,,---,0.00,VWS V14.01,2013-11-28 14:41:00,
2013-11-28 09:42:00,25.9,21.7,29.50,WSW,246,5.4,5.4,84,0.00,,---,0.00,VWS V14.01,2013-11-28 14:42:00,
2013-11-28 09:44:00,25.9,21.7,29.50,SW,228,3.6,6.3,84,0.00,,---,0.00,VWS V14.01,2013-11-28 14:44:00,
2013-11-28 09:46:00,25.7,21.5,29.50,WSW,257,5.4,5.4,84,0.00,,---,0.00,VWS V14.01,2013-11-28 14:46:00,
2013-11-28 09:47:00,25.7,21.5,29.50,WSW,238,2.7,2.7,84,0.00,,---,0.00,VWS V14.01,2013-11-28 14:47:00,
2013-11-28 09:49:00,26.1,21.9,29.50,SSW,205,5.8,8.1,84,0.00,,---,0.00,VWS V14.01,2013-11-28 14:49:00,
2013-11-28 09:51:00,26.4,22.2,29.50,South,187,4.9,6.3,84,0.00,,---,0.00,VWS V14.01,2013-11-28 14:51:00,
2013-11-28 09:52:00,26.6,22.4,29.50,SSW,212,6.3,6.3,84,0.00,,---,0.00,VWS V14.01,2013-11-28 14:52:00,
2013-11-28 09:53:00,26.6,22.4,29.50,WSW,240,4.5,4.5,84,0.00,,---,0.00,VWS V14.01,2013-11-28 14:53:00,
2013-11-28 09:55:00,27.0,22.5,29.53,WSW,250,4.9,7.2,83,0.00,,---,0.00,VWS V14.01,2013-11-28 14:55:00,
2013-11-28 09:57:00,27.1,22.7,29.53,SSW,192,4.0,4.0,83,0.00,,---,0.00,VWS V14.01,2013-11-28 14:57:00,
2013-11-28 09:58:00,27.3,22.9,29.53,SW,230,5.4,6.7,83,0.00,,---,0.00,VWS V14.01,2013-11-28 14:58:00,
2013-11-28 10:00:00,27.5,23.0,29.53,SSW,205,3.1,5.8,83,0.00,,---,0.00,VWS V14.01,2013-11-28 15:00:00,
2013-11-28 10:02:00,27.9,23.4,29.53,SW,235,0.0,2.2,83,0.00,,---,0.00,VWS V14.01,2013-11-28 15:02:00,
2013-11-28 10:03:00,27.9,23.4,29.53,SW,218,2.2,2.2,83,0.00,,---,0.00,VWS V14.01,2013-11-28 15:03:00,
2013-11-28 10:05:00,28.2,23.7,29.53,SSW,201,3.1,3.6,83,0.00,,---,0.00,VWS V14.01,2013-11-28 15:05:00,
2013-11-28 10:07:00,28.4,23.9,29.53,SSW,205,5.8,7.2,83,0.00,,---,0.00,VWS V14.01,2013-11-28 15:07:00,
2013-11-28 10:08:00,28.4,23.9,29.53,SW,228,4.0,7.2,83,0.00,,---,0.00,VWS V14.01,2013-11-28 15:08:00,
2013-11-28 10:10:00,28.2,23.7,29.50,WSW,254,5.8,5.8,83,0.00,,---,0.00,VWS V14.01,2013-11-28 15:10:00,
2013-11-28 10:11:00,28.0,23.5,29.50,West,281,8.3,8.3,83,0.00,,---,0.00,VWS V14.01,2013-11-28 15:11:00,
2013-11-28 10:12:00,27.9,23.4,29.50,SW,215,2.7,5.4,83,0.00,,---,0.00,VWS V14.01,2013-11-28 15:12:00,
2013-11-28 10:13:00,27.9,23.4,29.50,SW,220,3.1,5.4,83,0.00,,---,0.00,VWS V14.01,2013-11-28 15:13:00,
2013-11-28 10:15:00,28.0,23.5,29.50,WSW,246,3.1,3.6,83,0.00,,---,0.00,VWS V14.01,2013-11-28 15:15:00,
2013-11-28 10:16:00,28.2,23.7,29.50,South,177,5.4,6.3,83,0.00,,---,0.00,VWS V14.01,2013-11-28 15:16:00,
2013-11-28 10:17:00,28.4,23.9,29.50,SSW,205,3.1,6.3,83,0.00,,---,0.00,VWS V14.01,2013-11-28 15:17:00,
2013-11-28 10:18:00,28.4,23.9,29.50,SSW,202,3.1,6.3,83,0.00,,---,0.00,VWS V14.01,2013-11-28 15:18:00,
2013-11-28 10:20:00,28.9,24.4,29.50,West,273,0.0,0.0,83,0.00,,---,0.00,VWS V14.01,2013-11-28 15:20:00,
2013-11-28 10:21:00,28.9,24.4,29.50,SSW,211,5.4,5.4,83,0.00,,---,0.00,VWS V14.01,2013-11-28 15:21:00,
2013-11-28 10:23:00,29.3,24.8,29.50,SW,219,8.1,8.1,83,0.00,,---,0.00,VWS V14.01,2013-11-28 15:23:00,
2013-11-28 10:25:00,28.9,24.4,29.50,SSW,205,6.3,8.7,83,0.00,,---,0.00,VWS V14.01,2013-11-28 15:25:00,
2013-11-28 10:26:00,28.9,24.4,29.50,SW,220,5.8,8.3,83,0.00,,---,0.00,VWS V14.01,2013-11-28 15:26:00,
2013-11-28 10:28:00,28.8,24.3,29.50,SSW,209,7.2,7.2,83,0.00,,---,0.00,VWS V14.01,2013-11-28 15:28:00,
2013-11-28 10:29:00,28.8,24.3,29.50,SW,225,3.6,10.5,83,0.00,,---,0.00,VWS V14.01,2013-11-28 15:29:00,
2013-11-28 10:31:00,28.9,24.4,29.50,SW,231,8.7,8.7,83,0.00,,---,0.00,VWS V14.01,2013-11-28 15:31:00,
2013-11-28 10:33:00,28.9,24.4,29.50,SSW,200,10.1,10.1,83,0.00,,---,0.00,VWS V14.01,2013-11-28 15:33:00,
2013-11-28 10:34:00,28.9,24.4,29.50,SW,225,7.2,10.1,83,0.00,,---,0.00,VWS V14.01,2013-11-28 15:34:00,
2013-11-28 10:36:00,28.9,24.4,29.50,SW,218,5.8,7.6,83,0.00,,---,0.00,VWS V14.01,2013-11-28 15:36:00,
2013-11-28 10:37:00,28.9,24.4,29.50,SW,220,4.9,6.3,83,0.00,,---,0.00,VWS V14.01,2013-11-28 15:37:00,
2013-11-28 10:38:00,29.1,24.6,29.50,SW,229,5.4,5.8,83,0.00,,---,0.00,VWS V14.01,2013-11-28 15:38:00,
2013-11-28 10:39:00,29.3,24.8,29.50,SSW,205,5.4,5.4,83,0.00,,---,0.00,VWS V14.01,2013-11-28 15:39:00,
2013-11-28 10:41:00,29.7,25.1,29.50,SW,234,5.4,5.4,83,0.00,,---,0.00,VWS V14.01,2013-11-28 15:41:00,
2013-11-28 10:42:00,29.8,25.3,29.50,SW,214,6.3,6.3,83,0.00,,---,0.00,VWS V14.01,2013-11-28 15:42:00,
2013-11-28 10:43:00,30.0,25.5,29.50,South,179,8.1,8.1,83,0.00,,---,0.00,VWS V14.01,2013-11-28 15:43:00,
2013-11-28 10:44:00,30.2,25.7,29.50,WSW,251,8.7,8.7,83,0.00,,---,0.00,VWS V14.01,2013-11-28 15:44:00,
2013-11-28 10:45:00,30.2,25.7,29.50,SW,218,6.3,14.5,83,0.00,,---,0.00,VWS V14.01,2013-11-28 15:45:00,
2013-11-28 10:46:00,30.2,25.7,29.50,SW,219,4.0,4.0,83,0.00,,---,0.00,VWS V14.01,2013-11-28 15:46:00,
2013-11-28 10:47:00,29.7,25.1,29.50,SSW,202,5.4,7.2,83,0.00,,---,0.00,VWS V14.01,2013-11-28 15:47:00,
2013-11-28 10:48:00,29.5,25.0,29.50,SW,215,5.8,10.1,83,0.00,,---,0.00,VWS V14.01,2013-11-28 15:48:00,
2013-11-28 10:49:00,29.5,25.0,29.50,SW,216,6.3,6.3,83,0.00,,---,0.00,VWS V14.01,2013-11-28 15:49:00,
2013-11-28 10:50:00,29.5,25.0,29.50,SSW,198,10.1,10.1,83,0.00,,---,0.00,VWS V14.01,2013-11-28 15:50:00,
2013-11-28 10:51:00,29.3,24.8,29.50,WSW,258,5.8,10.1,83,0.00,,---,0.00,VWS V14.01,2013-11-28 15:51:00,
2013-11-28 10:53:00,29.1,24.6,29.50,SW,218,8.3,8.3,83,0.00,,---,0.00,VWS V14.01,2013-11-28 15:53:00,
2013-11-28 10:54:00,29.1,24.6,29.50,WSW,238,5.8,5.8,83,0.00,,---,0.00,VWS V14.01,2013-11-28 15:54:00,
2013-11-28 10:56:00,29.5,25.0,29.50,WNW,299,6.3,6.3,83,0.00,,---,0.00,VWS V14.01,2013-11-28 15:56:00,
2013-11-28 10:58:00,30.0,25.5,29.50,West,265,5.8,8.3,83,0.00,,---,0.00,VWS V14.01,2013-11-28 15:58:00,
2013-11-28 10:59:00,30.0,25.5,29.50,SW,224,2.7,5.8,83,0.00,,---,0.00,VWS V14.01,2013-11-28 15:59:00,
2013-11-28 11:00:00,30.0,25.5,29.50,SSW,213,4.0,4.0,83,0.00,,---,0.00,VWS V14.01,2013-11-28 16:00:00,
2013-11-28 11:01:00,30.2,25.7,29.50,SW,215,6.3,8.3,83,0.00,,---,0.00,VWS V14.01,2013-11-28 16:01:00,
2013-11-28 11:03:00,30.4,25.9,29.50,SSE,151,3.6,3.6,83,0.00,,---,0.00,VWS V14.01,2013-11-28 16:03:00,
2013-11-28 11:04:00,30.7,26.2,29.50,SSW,213,2.7,3.6,83,0.00,,---,0.00,VWS V14.01,2013-11-28 16:04:00,
2013-11-28 11:05:00,30.9,26.4,29.50,SW,223,8.3,8.3,83,0.00,,---,0.00,VWS V14.01,2013-11-28 16:05:00,
2013-11-28 11:06:00,30.7,26.2,29.50,SSW,197,5.4,7.2,83,0.00,,---,0.00,VWS V14.01,2013-11-28 16:06:00,
2013-11-28 11:07:00,30.9,26.4,29.50,South,185,3.6,7.2,83,0.00,,---,0.00,VWS V14.01,2013-11-28 16:07:00,
2013-11-28 11:08:00,30.9,26.4,29.50,South,190,5.8,8.1,83,0.00,,---,0.00,VWS V14.01,2013-11-28 16:08:00,
2013-11-28 11:09:00,30.9,26.4,29.50,SW,230,7.6,10.5,83,0.00,,---,0.00,VWS V14.01,2013-11-28 16:09:00,
2013-11-28 11:10:00,30.9,26.4,29.50,SW,230,7.6,10.5,83,0.00,,---,0.00,VWS V14.01,2013-11-28 16:10:00,
2013-11-28 11:11:00,30.9,26.4,29.50,SW,228,3.6,4.9,83,0.00,,---,0.00,VWS V14.01,2013-11-28 16:11:00,
2013-11-28 11:12:00,30.9,26.4,29.50,SSW,211,6.3,6.3,83,0.00,,---,0.00,VWS V14.01,2013-11-28 16:12:00,
2013-11-28 11:14:00,30.9,26.4,29.50,South,180,5.4,7.6,83,0.00,,---,0.00,VWS V14.01,2013-11-28 16:14:00,
2013-11-28 11:15:00,30.9,26.4,29.50,South,188,4.0,6.3,83,0.00,,---,0.00,VWS V14.01,2013-11-28 16:15:00,
2013-11-28 11:16:00,31.3,26.7,29.50,SW,229,4.0,5.8,83,0.00,,---,0.00,VWS V14.01,2013-11-28 16:16:00,
2013-11-28 11:17:00,31.5,26.9,29.50,South,174,4.0,4.0,83,0.00,,---,0.00,VWS V14.01,2013-11-28 16:17:00,
2013-11-28 11:19:00,32.0,27.4,29.50,SW,226,3.1,5.8,83,0.00,,---,0.00,VWS V14.01,2013-11-28 16:19:00,
2013-11-28 11:20:00,32.4,27.8,29.50,SSW,207,4.0,4.9,83,0.00,,---,0.00,VWS V14.01,2013-11-28 16:20:00,
2013-11-28 11:21:00,32.7,28.1,29.50,SSW,207,4.0,5.4,83,0.00,,---,0.00,VWS V14.01,2013-11-28 16:21:00,
2013-11-28 11:22:00,32.7,28.1,29.50,SSW,213,3.6,3.6,83,0.00,,---,0.00,VWS V14.01,2013-11-28 16:22:00,
2013-11-28 11:24:00,32.9,28.3,29.50,SSW,200,6.3,8.3,83,0.00,,---,0.00,VWS V14.01,2013-11-28 16:24:00,
2013-11-28 11:25:00,33.1,28.5,29.50,SW,219,3.6,5.4,83,0.00,,---,0.00,VWS V14.01,2013-11-28 16:25:00,
2013-11-28 11:27:00,33.1,28.5,29.50,SSW,194,3.6,6.7,83,0.00,,---,0.00,VWS V14.01,2013-11-28 16:27:00,
2013-11-28 11:29:00,32.7,28.1,29.50,SW,229,4.0,7.2,83,0.00,,---,0.00,VWS V14.01,2013-11-28 16:29:00,
2013-11-28 11:30:00,32.7,28.1,29.50,SSE,159,4.9,4.9,83,0.00,,---,0.00,VWS V14.01,2013-11-28 16:30:00,
2013-11-28 11:32:00,32.5,28.0,29.50,WSW,244,5.4,5.4,83,0.00,,---,0.00,VWS V14.01,2013-11-28 16:32:00,
2013-11-28 11:34:00,32.4,27.8,29.50,West,276,3.1,5.8,83,0.00,,---,0.00,VWS V14.01,2013-11-28 16:34:00,
2013-11-28 11:35:00,32.4,27.8,29.50,SE,144,8.7,8.7,83,0.00,,---,0.00,VWS V14.01,2013-11-28 16:35:00,
2013-11-28 11:37:00,32.2,27.6,29.50,West,268,3.1,8.1,83,0.00,,---,0.00,VWS V14.01,2013-11-28 16:37:00,
2013-11-28 11:38:00,32.2,27.6,29.50,WSW,251,4.0,8.1,83,0.00,,---,0.00,VWS V14.01,2013-11-28 16:38:00,
2013-11-28 11:39:00,32.2,27.6,29.50,SW,226,7.2,8.1,83,0.00,,---,0.00,VWS V14.01,2013-11-28 16:39:00,
2013-11-28 11:40:00,32.2,27.6,29.47,SSW,207,11.0,11.0,83,0.00,,---,0.00,VWS V14.01,2013-11-28 16:40:00,
2013-11-28 11:41:00,32.2,27.6,29.47,SSW,199,3.6,7.6,83,0.00,,---,0.00,VWS V14.01,2013-11-28 16:41:00,
2013-11-28 11:43:00,32.4,27.8,29.47,SSW,207,5.4,5.8,83,0.00,,---,0.00,VWS V14.01,2013-11-28 16:43:00,
2013-11-28 11:44:00,32.7,28.1,29.47,SSW,195,5.8,5.8,83,0.00,,---,0.00,VWS V14.01,2013-11-28 16:44:00,
2013-11-28 11:45:00,32.7,28.1,29.47,SW,215,5.8,8.1,83,0.00,,---,0.00,VWS V14.01,2013-11-28 16:45:00,
2013-11-28 11:46:00,32.7,28.1,29.47,SSW,206,5.8,8.1,83,0.00,,---,0.00,VWS V14.01,2013-11-28 16:46:00,
2013-11-28 11:48:00,32.9,28.3,29.47,West,272,3.6,5.8,83,0.00,,---,0.00,VWS V14.01,2013-11-28 16:48:00,
2013-11-28 11:49:00,33.1,28.5,29.47,SSW,203,7.2,7.2,83,0.00,,---,0.00,VWS V14.01,2013-11-28 16:49:00,
2013-11-28 11:50:00,33.1,28.5,29.47,SW,223,6.3,7.6,83,0.00,,---,0.00,VWS V14.01,2013-11-28 16:50:00,
2013-11-28 11:51:00,33.1,28.5,29.47,SSW,195,5.8,10.1,83,0.00,,---,0.00,VWS V14.01,2013-11-28 16:51:00,
2013-11-28 11:53:00,32.5,28.0,29.47,SW,229,4.9,4.9,83,0.00,,---,0.00,VWS V14.01,2013-11-28 16:53:00,
2013-11-28 11:55:00,32.5,28.0,29.47,West,275,3.6,3.6,83,0.00,,---,0.00,VWS V14.01,2013-11-28 16:55:00,
2013-11-28 11:56:00,32.5,28.0,29.47,WSW,243,7.2,7.2,83,0.00,,---,0.00,VWS V14.01,2013-11-28 16:56:00,
2013-11-28 11:57:00,32.5,28.0,29.47,WSW,245,6.3,7.2,83,0.00,,---,0.00,VWS V14.01,2013-11-28 16:57:00,
2013-11-28 11:59:00,32.7,28.1,29.47,SSW,196,4.9,4.9,83,0.00,,---,0.00,VWS V14.01,2013-11-28 16:59:00,
2013-11-28 12:00:00,33.1,28.5,29.47,WSW,245,6.3,6.3,83,0.00,,---,0.00,VWS V14.01,2013-11-28 17:00:00,
2013-11-28 12:01:00,33.3,28.7,29.47,SSW,200,7.2,10.5,83,0.00,,---,0.00,VWS V14.01,2013-11-28 17:01:00,
2013-11-28 12:02:00,33.3,28.7,29.47,SSW,213,6.3,7.6,83,0.00,,---,0.00,VWS V14.01,2013-11-28 17:02:00,
2013-11-28 12:04:00,33.3,28.7,29.47,SW,217,3.1,5.8,83,0.00,,---,0.00,VWS V14.01,2013-11-28 17:04:00,
2013-11-28 12:05:00,33.3,28.7,29.47,SSW,196,8.7,8.7,83,0.00,,---,0.00,VWS V14.01,2013-11-28 17:05:00,
2013-11-28 12:06:00,33.3,28.7,29.47,SW,234,5.4,5.4,83,0.00,,---,0.00,VWS V14.01,2013-11-28 17:06:00,
2013-11-28 12:08:00,33.1,28.5,29.47,SW,235,10.1,10.1,83,0.00,,---,0.00,VWS V14.01,2013-11-28 17:08:00,
2013-11-28 12:09:00,33.1,28.5,29.47,SSW,206,6.3,6.3,83,0.00,,---,0.00,VWS V14.01,2013-11-28 17:09:00,
2013-11-28 12:10:00,33.3,28.7,29.47,SSW,208,5.8,5.8,83,0.00,,---,0.00,VWS V14.01,2013-11-28 17:10:00,
2013-11-28 12:11:00,33.4,28.8,29.47,SSW,209,8.3,8.3,83,0.00,,---,0.00,VWS V14.01,2013-11-28 17:11:00,
2013-11-28 12:12:00,33.6,29.0,29.47,WNW,287,5.8,5.8,83,0.00,,---,0.00,VWS V14.01,2013-11-28 17:12:00,
2013-11-28 12:13:00,33.6,29.0,29.47,West,277,6.3,6.3,83,0.00,,---,0.00,VWS V14.01,2013-11-28 17:13:00,
2013-11-28 12:14:00,33.4,28.8,29.47,SW,234,7.2,8.3,83,0.00,,---,0.00,VWS V14.01,2013-11-28 17:14:00,
2013-11-28 12:15:00,33.4,28.8,29.47,West,268,8.1,8.1,83,0.00,,---,0.00,VWS V14.01,2013-11-28 17:15:00,
2013-11-28 12:16:00,33.1,28.5,29.47,West,260,7.6,8.3,83,0.00,,---,0.00,VWS V14.01,2013-11-28 17:16:00,
2013-11-28 12:17:00,32.9,28.3,29.47,SSW,213,5.8,8.1,83,0.00,,---,0.00,VWS V14.01,2013-11-28 17:17:00,
2013-11-28 12:18:00,32.9,28.3,29.47,SSW,205,3.6,8.1,83,0.00,,---,0.00,VWS V14.01,2013-11-28 17:18:00,
2013-11-28 12:19:00,33.3,28.7,29.47,SE,127,6.3,7.6,83,0.00,,---,0.00,VWS V14.01,2013-11-28 17:19:00,
2013-11-28 12:20:00,33.3,28.7,29.47,SW,229,8.3,12.3,83,0.00,,---,0.00,VWS V14.01,2013-11-28 17:20:00,
2013-11-28 12:22:00,33.4,28.8,29.47,SW,233,4.0,8.3,83,0.00,,---,0.00,VWS V14.01,2013-11-28 17:22:00,
2013-11-28 12:23:00,33.6,29.0,29.47,South,191,8.7,8.7,83,0.00,,---,0.00,VWS V14.01,2013-11-28 17:23:00,
2013-11-28 12:25:00,33.8,28.9,29.44,South,176,5.8,8.3,82,0.00,,---,0.00,VWS V14.01,2013-11-28 17:25:00,
2013-11-28 12:26:00,33.8,28.9,29.44,SSW,202,5.8,5.8,82,0.00,,---,0.00,VWS V14.01,2013-11-28 17:26:00,
2013-11-28 12:27:00,34.0,29.1,29.44,SSW,205,5.8,5.8,82,0.00,,---,0.00,VWS V14.01,2013-11-28 17:27:00,
2013-11-28 12:28:00,34.3,29.4,29.44,SW,217,5.8,5.8,82,0.00,,---,0.00,VWS V14.01,2013-11-28 17:28:00,
2013-11-28 12:30:00,34.5,29.6,29.44,SSW,212,5.4,8.3,82,0.00,,---,0.00,VWS V14.01,2013-11-28 17:30:00,
2013-11-28 12:31:00,34.5,29.6,29.44,SSW,195,5.4,8.3,82,0.00,,---,0.00,VWS V14.01,2013-11-28 17:31:00,
2013-11-28 12:32:00,34.7,29.8,29.44,SW,219,2.7,6.3,82,0.00,,---,0.00,VWS V14.01,2013-11-28 17:32:00,
2013-11-28 12:33:00,34.9,30.0,29.44,SW,222,6.3,8.1,82,0.00,,---,0.00,VWS V14.01,2013-11-28 17:33:00,
2013-11-28 12:36:00,34.9,30.0,29.44,SW,215,6.3,8.1,82,0.00,,---,0.00,VWS V14.01,2013-11-28 17:36:00,
2013-11-28 12:37:00,34.9,30.0,29.44,SW,231,6.3,7.6,82,0.00,,---,0.00,VWS V14.01,2013-11-28 17:37:00,
2013-11-28 12:38:00,34.9,30.0,29.44,SW,216,6.3,8.3,82,0.00,,---,0.00,VWS V14.01,2013-11-28 17:38:00,
2013-11-28 12:39:00,34.9,30.0,29.44,SSW,211,7.6,8.1,82,0.00,,---,0.00,VWS V14.01,2013-11-28 17:39:00,
2013-11-28 12:41:00,35.1,30.1,29.44,SSW,202,5.8,5.8,82,0.00,,---,0.00,VWS V14.01,2013-11-28 17:41:00,
2013-11-28 12:42:00,34.9,30.0,29.44,South,187,5.8,5.8,82,0.00,,---,0.00,VWS V14.01,2013-11-28 17:42:00,
2013-11-28 12:43:00,34.7,29.8,29.44,SSE,153,8.7,9.6,82,0.00,,---,0.00,VWS V14.01,2013-11-28 17:43:00,
2013-11-28 12:44:00,34.5,29.6,29.44,South,179,10.5,10.5,82,0.00,,---,0.00,VWS V14.01,2013-11-28 17:44:00,
2013-11-28 12:46:00,34.0,29.1,29.44,SSW,213,8.7,11.9,82,0.00,,---,0.00,VWS V14.01,2013-11-28 17:46:00,
2013-11-28 12:48:00,34.0,29.1,29.44,SSW,205,5.8,8.7,82,0.00,,---,0.00,VWS V14.01,2013-11-28 17:48:00,
2013-11-28 12:49:00,34.0,29.1,29.44,South,188,5.4,6.3,82,0.00,,---,0.00,VWS V14.01,2013-11-28 17:49:00,
2013-11-28 12:50:00,34.2,29.2,29.44,WSW,253,6.3,8.3,82,0.00,,---,0.00,VWS V14.01,2013-11-28 17:50:00,
2013-11-28 12:51:00,34.3,29.4,29.44,SSW,210,8.7,8.7,82,0.00,,---,0.00,VWS V14.01,2013-11-28 17:51:00,
2013-11-28 12:53:00,34.3,29.4,29.44,SSW,210,8.1,9.6,82,0.00,,---,0.00,VWS V14.01,2013-11-28 17:53:00,
2013-11-28 12:54:00,34.3,29.4,29.44,SSW,200,10.1,11.0,82,0.00,,---,0.00,VWS V14.01,2013-11-28 17:54:00,
2013-11-28 12:55:00,34.2,29.2,29.44,SSW,205,5.4,10.1,82,0.00,,---,0.00,VWS V14.01,2013-11-28 17:55:00,
2013-11-28 12:56:00,34.2,29.2,29.44,SSW,212,4.9,7.2,82,0.00,,---,0.00,VWS V14.01,2013-11-28 17:56:00,
2013-11-28 12:57:00,34.2,29.2,29.44,SSE,155,8.1,8.1,82,0.00,,---,0.00,VWS V14.01,2013-11-28 17:57:00,
2013-11-28 12:58:00,34.0,29.1,29.44,SSW,208,9.2,13.2,82,0.00,,---,0.00,VWS V14.01,2013-11-28 17:58:00,
2013-11-28 12:59:00,34.0,29.1,29.44,SSW,196,8.7,8.7,82,0.00,,---,0.00,VWS V14.01,2013-11-28 17:59:00,
2013-11-28 13:00:00,34.0,29.1,29.44,WSW,237,5.8,10.5,82,0.00,,---,0.00,VWS V14.01,2013-11-28 18:00:00,
2013-11-28 13:01:00,34.0,29.1,29.44,SW,226,4.0,8.3,82,0.00,,---,0.00,VWS V14.01,2013-11-28 18:01:00,
2013-11-28 13:02:00,34.2,29.2,29.44,SSW,207,6.3,6.3,82,0.00,,---,0.00,VWS V14.01,2013-11-28 18:02:00,
2013-11-28 13:03:00,34.5,29.6,29.44,SSW,200,7.6,7.6,82,0.00,,---,0.00,VWS V14.01,2013-11-28 18:03:00,
2013-11-28 13:04:00,34.5,29.6,29.44,SSW,195,6.3,7.6,82,0.00,,---,0.00,VWS V14.01,2013-11-28 18:04:00,
2013-11-28 13:06:00,34.9,30.0,29.44,SW,218,8.7,8.7,82,0.00,,---,0.00,VWS V14.01,2013-11-28 18:06:00,
2013-11-28 13:07:00,34.9,30.0,29.44,SW,234,10.1,10.1,82,0.00,,---,0.00,VWS V14.01,2013-11-28 18:07:00,
2013-11-28 13:08:00,34.9,30.0,29.44,SSW,194,12.3,12.3,82,0.00,,---,0.00,VWS V14.01,2013-11-28 18:08:00,
2013-11-28 13:09:00,34.9,30.0,29.44,WSW,240,8.7,8.7,82,0.00,,---,0.00,VWS V14.01,2013-11-28 18:09:00,
2013-11-28 13:11:00,34.7,29.8,29.41,SSW,213,6.3,8.3,82,0.00,,---,0.00,VWS V14.01,2013-11-28 18:11:00,
2013-11-28 13:12:00,34.7,29.8,29.41,SW,231,7.6,8.3,82,0.00,,---,0.00,VWS V14.01,2013-11-28 18:12:00,
2013-11-28 13:13:00,34.9,30.0,29.41,SW,224,7.6,7.6,82,0.00,,---,0.00,VWS V14.01,2013-11-28 18:13:00,
2013-11-28 13:14:00,34.9,30.0,29.41,SW,219,3.6,8.1,82,0.00,,---,0.00,VWS V14.01,2013-11-28 18:14:00,
2013-11-28 13:16:00,34.9,30.0,29.41,WSW,238,3.6,3.6,82,0.00,,---,0.00,VWS V14.01,2013-11-28 18:16:00,
2013-11-28 13:17:00,35.1,30.1,29.41,SW,220,4.9,5.4,82,0.00,,---,0.00,VWS V14.01,2013-11-28 18:17:00,
2013-11-28 13:19:00,35.2,30.3,29.41,WSW,245,5.4,5.8,82,0.00,,---,0.00,VWS V14.01,2013-11-28 18:19:00,
2013-11-28 13:21:00,35.6,30.7,29.41,SW,225,9.6,9.6,82,0.00,,---,0.00,VWS V14.01,2013-11-28 18:21:00,
2013-11-28 13:22:00,35.8,30.8,29.41,WSW,253,7.6,7.6,82,0.00,,---,0.00,VWS V14.01,2013-11-28 18:22:00,
2013-11-28 13:23:00,35.8,30.8,29.41,WSW,245,8.3,11.0,82,0.00,,---,0.00,VWS V14.01,2013-11-28 18:23:00,
2013-11-28 13:24:00,35.4,30.5,29.41,SSW,206,8.3,10.1,82,0.00,,---,0.00,VWS V14.01,2013-11-28 18:24:00,
2013-11-28 13:25:00,35.1,30.1,29.41,South,190,5.4,5.4,82,0.00,,---,0.00,VWS V14.01,2013-11-28 18:25:00,
2013-11-28 13:26:00,35.1,30.1,29.41,SSW,213,7.6,8.7,82,0.00,,---,0.00,VWS V14.01,2013-11-28 18:26:00,
2013-11-28 13:27:00,35.1,30.1,29.41,South,182,10.1,10.1,82,0.00,,---,0.00,VWS V14.01,2013-11-28 18:27:00,
2013-11-28 13:28:00,35.1,30.1,29.41,SSW,193,8.3,10.1,82,0.00,,---,0.00,VWS V14.01,2013-11-28 18:28:00,
2013-11-28 13:29:00,34.9,30.0,29.41,SSW,194,8.1,8.1,82,0.00,,---,0.00,VWS V14.01,2013-11-28 18:29:00,
2013-11-28 13:30:00,34.9,30.0,29.41,SSW,196,8.3,8.3,82,0.00,,---,0.00,VWS V14.01,2013-11-28 18:30:00,
2013-11-28 13:31:00,34.9,30.0,29.41,South,190,11.0,11.0,82,0.00,,---,0.00,VWS V14.01,2013-11-28 18:31:00,
2013-11-28 13:32:00,34.9,30.0,29.41,SSW,209,8.7,11.0,82,0.00,,---,0.00,VWS V14.01,2013-11-28 18:32:00,
2013-11-28 13:33:00,34.7,29.8,29.41,SSE,167,10.5,10.5,82,0.00,,---,0.00,VWS V14.01,2013-11-28 18:33:00,
2013-11-28 13:34:00,34.5,29.6,29.41,SSW,211,10.5,10.5,82,0.00,,---,0.00,VWS V14.01,2013-11-28 18:34:00,
2013-11-28 13:35:00,34.3,29.4,29.41,SSW,205,8.7,8.7,82,0.00,,---,0.00,VWS V14.01,2013-11-28 18:35:00,
2013-11-28 13:36:00,34.2,29.2,29.41,SSW,205,7.6,12.3,82,0.00,,---,0.00,VWS V14.01,2013-11-28 18:36:00,
2013-11-28 13:37:00,34.3,29.4,29.41,SSW,195,6.3,8.3,82,0.00,,---,0.00,VWS V14.01,2013-11-28 18:37:00,
2013-11-28 13:38:00,34.3,29.4,29.41,West,270,8.7,8.7,82,0.00,,---,0.00,VWS V14.01,2013-11-28 18:38:00,
2013-11-28 13:39:00,34.3,29.4,29.41,SSW,208,8.1,8.1,82,0.00,,---,0.00,VWS V14.01,2013-11-28 18:39:00,
2013-11-28 13:40:00,34.5,29.6,29.41,SSW,204,4.9,4.9,82,0.00,,---,0.00,VWS V14.01,2013-11-28 18:40:00,
2013-11-28 13:42:00,34.9,30.0,29.41,SW,220,7.6,8.1,82,0.00,,---,0.00,VWS V14.01,2013-11-28 18:42:00,
2013-11-28 13:43:00,34.9,30.0,29.41,SW,218,4.0,10.5,82,0.00,,---,0.00,VWS V14.01,2013-11-28 18:43:00,
2013-11-28 13:45:00,34.9,30.0,29.41,SSW,207,5.4,8.7,82,0.00,,---,0.00,VWS V14.01,2013-11-28 18:45:00,
2013-11-28 13:47:00,34.9,30.0,29.41,SW,229,6.3,6.3,82,0.00,,---,0.00,VWS V14.01,2013-11-28 18:47:00,
2013-11-28 13:48:00,34.9,30.0,29.41,SW,226,8.3,8.3,82,0.00,,---,0.00,VWS V14.01,2013-11-28 18:48:00,
2013-11-28 13:50:00,34.7,29.8,29.41,WNW,288,6.3,8.3,82,0.00,,---,0.00,VWS V14.01,2013-11-28 18:50:00,
2013-11-28 13:52:00,34.9,30.0,29.41,WSW,239,3.6,4.9,82,0.00,,---,0.00,VWS V14.01,2013-11-28 18:52:00,
2013-11-28 13:53:00,34.9,30.0,29.41,SSW,197,5.4,6.3,82,0.00,,---,0.00,VWS V14.01,2013-11-28 18:53:00,
2013-11-28 13:55:00,35.1,30.1,29.41,SSW,213,5.8,8.1,82,0.00,,---,0.00,VWS V14.01,2013-11-28 18:55:00,
2013-11-28 13:57:00,35.2,30.3,29.41,South,181,6.3,6.3,82,0.00,,---,0.00,VWS V14.01,2013-11-28 18:57:00,
2013-11-28 13:58:00,35.2,30.3,29.41,SW,223,5.8,7.6,82,0.00,,---,0.00,VWS V14.01,2013-11-28 18:58:00,
2013-11-28 13:59:00,35.4,30.5,29.41,SW,214,5.8,7.6,82,0.00,,---,0.00,VWS V14.01,2013-11-28 18:59:00,
2013-11-28 14:00:00,35.6,30.7,29.41,SSW,202,5.8,8.1,82,0.00,,---,0.00,VWS V14.01,2013-11-28 19:00:00,
2013-11-28 14:02:00,35.6,30.7,29.41,SSW,195,3.6,5.4,82,0.00,,---,0.00,VWS V14.01,2013-11-28 19:02:00,
2013-11-28 14:03:00,35.6,30.7,29.41,SSW,211,5.4,8.3,82,0.00,,---,0.00,VWS V14.01,2013-11-28 19:03:00,
2013-11-28 14:04:00,35.6,30.7,29.41,SSW,201,6.3,8.3,82,0.00,,---,0.00,VWS V14.01,2013-11-28 19:04:00,
2013-11-28 14:06:00,35.4,30.5,29.41,SW,217,6.3,6.3,82,0.00,,---,0.00,VWS V14.01,2013-11-28 19:06:00,
2013-11-28 14:08:00,35.4,30.5,29.41,SW,214,5.4,8.3,82,0.00,,---,0.00,VWS V14.01,2013-11-28 19:08:00,
2013-11-28 14:09:00,35.4,30.5,29.41,SSW,202,8.3,8.3,82,0.00,,---,0.00,VWS V14.01,2013-11-28 19:09:00,
2013-11-28 14:11:00,35.6,30.7,29.41,SSW,199,4.0,8.1,82,0.00,,---,0.00,VWS V14.01,2013-11-28 19:11:00,
2013-11-28 14:13:00,36.1,31.2,29.41,SSW,213,4.0,7.6,82,0.00,,---,0.00,VWS V14.01,2013-11-28 19:13:00,
2013-11-28 14:14:00,36.1,31.2,29.41,SSW,207,7.6,7.6,82,0.00,,---,0.00,VWS V14.01,2013-11-28 19:14:00,
2013-11-28 14:16:00,36.1,31.2,29.41,West,268,5.8,5.8,82,0.00,,---,0.00,VWS V14.01,2013-11-28 19:16:00,
2013-11-28 14:18:00,35.8,30.8,29.41,SW,217,8.7,8.7,82,0.00,,---,0.00,VWS V14.01,2013-11-28 19:18:00,
2013-11-28 14:19:00,35.6,30.7,29.41,SSW,207,7.6,10.1,82,0.00,,---,0.00,VWS V14.01,2013-11-28 19:19:00,
2013-11-28 14:20:00,35.6,30.7,29.41,SSW,200,5.4,10.1,82,0.00,,---,0.00,VWS V14.01,2013-11-28 19:20:00,
2013-11-28 14:21:00,35.8,30.8,29.41,SSW,211,4.0,4.0,82,0.00,,---,0.00,VWS V14.01,2013-11-28 19:21:00,
2013-11-28 14:23:00,36.1,31.2,29.41,SSW,213,4.9,8.3,82,0.00,,---,0.00,VWS V14.01,2013-11-28 19:23:00,
2013-11-28 14:24:00,36.1,31.2,29.41,SSE,162,5.4,5.4,82,0.00,,---,0.00,VWS V14.01,2013-11-28 19:24:00,
2013-11-28 14:25:00,36.1,31.2,29.41,SSW,208,5.4,5.4,82,0.00,,---,0.00,VWS V14.01,2013-11-28 19:25:00,
2013-11-28 14:26:00,36.3,31.4,29.41,South,174,8.1,8.1,82,0.00,,---,0.00,VWS V14.01,2013-11-28 19:26:00,
2013-11-28 14:28:00,36.1,31.2,29.41,SSW,206,6.3,6.3,82,0.00,,---,0.00,VWS V14.01,2013-11-28 19:28:00,
2013-11-28 14:29:00,36.0,31.0,29.41,WSW,244,6.3,7.6,82,0.00,,---,0.00,VWS V14.01,2013-11-28 19:29:00,
2013-11-28 14:30:00,35.8,30.8,29.41,SW,224,8.1,8.1,82,0.00,,---,0.00,VWS V14.01,2013-11-28 19:30:00,
2013-11-28 14:31:00,35.8,30.8,29.41,SW,229,3.1,5.8,82,0.00,,---,0.00,VWS V14.01,2013-11-28 19:31:00,
2013-11-28 14:33:00,36.1,31.2,29.41,SSW,211,8.3,8.3,82,0.00,,---,0.00,VWS V14.01,2013-11-28 19:33:00,
2013-11-28 14:34:00,36.1,31.2,29.41,WSW,237,8.1,8.3,82,0.00,,---,0.00,VWS V14.01,2013-11-28 19:34:00,
2013-11-28 14:36:00,35.8,30.8,29.41,SSW,208,6.3,6.3,82,0.00,,---,0.00,VWS V14.01,2013-11-28 19:36:00,
2013-11-28 14:38:00,35.6,30.7,29.41,SSW,194,8.7,8.7,82,0.00,,---,0.00,VWS V14.01,2013-11-28 19:38:00,
2013-11-28 14:39:00,35.6,30.7,29.41,SSW,205,5.4,8.7,82,0.00,,---,0.00,VWS V14.01,2013-11-28 19:39:00,
2013-11-28 14:41:00,35.6,30.7,29.41,SW,218,7.2,7.6,82,0.00,,---,0.00,VWS V14.01,2013-11-28 19:41:00,
2013-11-28 14:42:00,35.6,30.7,29.41,SSW,209,6.3,7.6,82,0.00,,---,0.00,VWS V14.01,2013-11-28 19:42:00,
2013-11-28 14:43:00,35.8,30.8,29.41,SSW,209,8.3,8.3,82,0.00,,---,0.00,VWS V14.01,2013-11-28 19:43:00,
2013-11-28 14:44:00,35.8,30.8,29.41,WSW,241,8.1,8.3,82,0.00,,---,0.00,VWS V14.01,2013-11-28 19:44:00,
2013-11-28 14:45:00,35.8,30.8,29.41,SSW,200,8.7,8.7,82,0.00,,---,0.00,VWS V14.01,2013-11-28 19:45:00,
2013-11-28 14:46:00,35.8,30.8,29.41,SSW,209,6.3,7.6,82,0.00,,---,0.00,VWS V14.01,2013-11-28 19:46:00,
2013-11-28 14:47:00,35.8,30.8,29.41,SW,220,5.4,5.4,82,0.00,,---,0.00,VWS V14.01,2013-11-28 19:47:00,
2013-11-28 14:48:00,36.1,31.2,29.41,SSW,213,5.8,8.3,82,0.00,,---,0.00,VWS V14.01,2013-11-28 19:48:00,
2013-11-28 14:49:00,36.0,31.0,29.41,SW,230,6.3,6.3,82,0.00,,---,0.00,VWS V14.01,2013-11-28 19:49:00,
2013-11-28 14:50:00,36.1,31.2,29.41,SW,217,4.9,5.8,82,0.00,,---,0.00,VWS V14.01,2013-11-28 19:50:00,
2013-11-28 14:51:00,36.1,31.2,29.41,SW,225,4.0,5.8,82,0.00,,---,0.00,VWS V14.01,2013-11-28 19:51:00,
2013-11-28 14:52:00,36.1,31.2,29.41,SSW,211,3.6,4.0,82,0.00,,---,0.00,VWS V14.01,2013-11-28 19:52:00,
2013-11-28 14:53:00,36.3,31.4,29.41,SW,233,6.7,6.7,82,0.00,,---,0.00,VWS V14.01,2013-11-28 19:53:00,
2013-11-28 14:54:00,36.3,31.4,29.41,SW,230,5.4,5.4,82,0.00,,---,0.00,VWS V14.01,2013-11-28 19:54:00,
2013-11-28 14:55:00,36.1,31.2,29.41,SSW,194,4.9,5.8,82,0.00,,---,0.00,VWS V14.01,2013-11-28 19:55:00,
2013-11-28 14:56:00,36.1,31.2,29.41,SSE,164,7.2,9.6,82,0.00,,---,0.00,VWS V14.01,2013-11-28 19:56:00,
2013-11-28 14:57:00,36.3,31.4,29.41,SSW,207,4.9,4.9,82,0.00,,---,0.00,VWS V14.01,2013-11-28 19:57:00,
2013-11-28 14:58:00,36.3,31.4,29.41,SSW,193,4.9,7.6,82,0.00,,---,0.00,VWS V14.01,2013-11-28 19:58:00,
2013-11-28 14:59:00,36.3,31.4,29.41,SSW,205,8.1,8.7,82,0.00,,---,0.00,VWS V14.01,2013-11-28 19:59:00,
2013-11-28 15:00:00,36.3,31.4,29.41,SW,216,5.4,6.3,82,0.00,,---,0.00,VWS V14.01,2013-11-28 20:00:00,
2013-11-28 15:01:00,36.3,31.4,29.41,SW,216,4.9,4.9,82,0.00,,---,0.00,VWS V14.01,2013-11-28 20:01:00,
2013-11-28 15:02:00,36.3,31.4,29.41,SSW,192,3.1,9.6,82,0.00,,---,0.00,VWS V14.01,2013-11-28 20:02:00,
2013-11-28 15:04:00,36.3,31.4,29.41,SSW,213,6.3,6.3,82,0.00,,---,0.00,VWS V14.01,2013-11-28 20:04:00,
2013-11-28 15:05:00,36.3,31.4,29.41,SSW,209,7.6,7.6,82,0.00,,---,0.00,VWS V14.01,2013-11-28 20:05:00,
2013-11-28 15:06:00,36.3,31.4,29.41,SW,218,3.6,4.9,82,0.00,,---,0.00,VWS V14.01,2013-11-28 20:06:00,
2013-11-28 15:08:00,36.5,31.5,29.41,West,259,5.4,5.4,82,0.00,,---,0.00,VWS V14.01,2013-11-28 20:08:00,
2013-11-28 15:09:00,36.5,31.5,29.41,SSE,157,5.4,6.3,82,0.00,,---,0.00,VWS V14.01,2013-11-28 20:09:00,
2013-11-28 15:10:00,36.7,31.7,29.41,SW,224,6.3,6.3,82,0.00,,---,0.00,VWS V14.01,2013-11-28 20:10:00,
2013-11-28 15:11:00,36.7,31.7,29.41,SSW,207,11.0,11.0,82,0.00,,---,0.00,VWS V14.01,2013-11-28 20:11:00,
2013-11-28 15:13:00,36.7,31.7,29.41,SSW,203,7.6,7.6,82,0.00,,---,0.00,VWS V14.01,2013-11-28 20:13:00,
2013-11-28 15:14:00,36.7,31.7,29.41,SSW,196,5.4,5.4,82,0.00,,---,0.00,VWS V14.01,2013-11-28 20:14:00,
2013-11-28 15:15:00,36.7,31.7,29.41,SW,216,6.3,7.6,82,0.00,,---,0.00,VWS V14.01,2013-11-28 20:15:00,
2013-11-28 15:16:00,36.5,31.5,29.41,SW,224,3.6,6.3,82,0.00,,---,0.00,VWS V14.01,2013-11-28 20:16:00,
2013-11-28 15:17:00,36.5,31.5,29.41,SSW,200,3.6,6.3,82,0.00,,---,0.00,VWS V14.01,2013-11-28 20:17:00,
2013-11-28 15:18:00,36.5,31.5,29.41,SSW,207,2.7,7.6,82,0.00,,---,0.00,VWS V14.01,2013-11-28 20:18:00,
2013-11-28 15:19:00,36.5,31.5,29.41,SSW,209,4.9,8.1,82,0.00,,---,0.00,VWS V14.01,2013-11-28 20:19:00,
2013-11-28 15:20:00,36.7,31.7,29.41,WSW,248,3.1,3.1,82,0.00,,---,0.00,VWS V14.01,2013-11-28 20:20:00,
2013-11-28 15:21:00,36.7,31.7,29.41,WNW,300,3.6,5.4,82,0.00,,---,0.00,VWS V14.01,2013-11-28 20:21:00,
2013-11-28 15:22:00,36.7,31.7,29.41,SSW,207,4.0,4.0,82,0.00,,---,0.00,VWS V14.01,2013-11-28 20:22:00,
2013-11-28 15:23:00,36.7,31.7,29.41,SSW,197,6.3,6.3,82,0.00,,---,0.00,VWS V14.01,2013-11-28 20:23:00,
2013-11-28 15:25:00,36.7,31.7,29.41,SW,220,8.1,8.1,82,0.00,,---,0.00,VWS V14.01,2013-11-28 20:25:00,
2013-11-28 15:26:00,36.7,31.7,29.41,WSW,239,5.8,8.1,82,0.00,,---,0.00,VWS V14.01,2013-11-28 20:26:00,
2013-11-28 15:27:00,36.7,31.7,29.41,SW,235,0.0,2.2,82,0.00,,---,0.00,VWS V14.01,2013-11-28 20:27:00,
2013-11-28 15:28:00,36.9,31.9,29.41,SSW,203,5.4,5.4,82,0.00,,---,0.00,VWS V14.01,2013-11-28 20:28:00,
2013-11-28 15:30:00,37.0,32.1,29.41,SSW,193,2.7,5.8,82,0.00,,---,0.00,VWS V14.01,2013-11-28 20:30:00,
2013-11-28 15:31:00,37.0,32.1,29.41,SW,217,8.1,8.1,82,0.00,,---,0.00,VWS V14.01,2013-11-28 20:31:00,
2013-11-28 15:32:00,36.9,31.9,29.41,SSW,209,5.4,8.7,82,0.00,,---,0.00,VWS V14.01,2013-11-28 20:32:00,
2013-11-28 15:33:00,36.9,31.9,29.41,SSW,207,5.4,7.6,82,0.00,,---,0.00,VWS V14.01,2013-11-28 20:33:00,
2013-11-28 15:35:00,36.7,31.7,29.41,SW,219,5.8,5.8,82,0.00,,---,0.00,VWS V14.01,2013-11-28 20:35:00,
2013-11-28 15:36:00,36.5,31.5,29.41,South,184,5.8,5.8,82,0.00,,---,0.00,VWS V14.01,2013-11-28 20:36:00,
2013-11-28 15:37:00,36.7,31.7,29.41,SSW,209,5.8,7.6,82,0.00,,---,0.00,VWS V14.01,2013-11-28 20:37:00,
2013-11-28 15:38:00,36.5,31.5,29.41,SW,214,3.6,4.9,82,0.00,,---,0.00,VWS V14.01,2013-11-28 20:38:00,
2013-11-28 15:40:00,36.7,31.7,29.41,SSW,192,6.3,6.3,82,0.00,,---,0.00,VWS V14.01,2013-11-28 20:40:00,
2013-11-28 15:41:00,36.7,31.7,29.41,SW,232,4.0,6.3,82,0.00,,---,0.00,VWS V14.01,2013-11-28 20:41:00,
2013-11-28 15:42:00,36.5,31.5,29.41,South,186,8.7,10.5,82,0.00,,---,0.00,VWS V14.01,2013-11-28 20:42:00,
2013-11-28 15:43:00,36.5,31.5,29.41,SE,145,3.6,3.6,82,0.00,,---,0.00,VWS V14.01,2013-11-28 20:43:00,
2013-11-28 15:45:00,36.3,31.4,29.41,SSW,211,5.4,8.7,82,0.00,,---,0.00,VWS V14.01,2013-11-28 20:45:00,
2013-11-28 15:46:00,36.3,31.4,29.41,SSW,209,5.8,10.1,82,0.00,,---,0.00,VWS V14.01,2013-11-28 20:46:00,
2013-11-28 15:47:00,36.1,31.2,29.41,SW,225,8.7,8.7,82,0.00,,---,0.00,VWS V14.01,2013-11-28 20:47:00,
2013-11-28 15:48:00,36.1,31.2,29.41,South,191,8.7,8.7,82,0.00,,---,0.00,VWS V14.01,2013-11-28 20:48:00,
2013-11-28 15:50:00,36.0,31.0,29.41,SSW,202,6.3,6.7,82,0.00,,---,0.00,VWS V14.01,2013-11-28 20:50:00,
2013-11-28 15:51:00,36.0,31.0,29.41,SSW,210,4.9,6.7,82,0.00,,---,0.00,VWS V14.01,2013-11-28 20:51:00,
2013-11-28 15:52:00,36.0,31.0,29.41,WSW,254,4.9,5.8,82,0.00,,---,0.00,VWS V14.01,2013-11-28 20:52:00,
2013-11-28 15:53:00,36.0,31.0,29.41,WSW,254,4.9,5.8,82,0.00,,---,0.00,VWS V14.01,2013-11-28 20:53:00,
2013-11-28 15:55:00,36.1,31.2,29.41,SSW,211,6.3,8.1,82,0.00,,---,0.00,VWS V14.01,2013-11-28 20:55:00,
2013-11-28 15:56:00,36.1,31.2,29.41,SW,229,6.3,6.3,82,0.00,,---,0.00,VWS V14.01,2013-11-28 20:56:00,
2013-11-28 15:57:00,36.1,31.2,29.41,SW,229,6.3,6.3,82,0.00,,---,0.00,VWS V14.01,2013-11-28 20:57:00,
2013-11-28 15:58:00,36.0,31.0,29.41,West,264,5.8,6.3,82,0.00,,---,0.00,VWS V14.01,2013-11-28 20:58:00,
2013-11-28 16:00:00,36.0,31.0,29.41,SSW,207,6.3,6.3,82,0.00,,---,0.00,VWS V14.01,2013-11-28 21:00:00,
2013-11-28 16:01:00,36.0,31.0,29.41,SW,225,5.8,6.7,82,0.00,,---,0.00,VWS V14.01,2013-11-28 21:01:00,
2013-11-28 16:02:00,35.8,30.8,29.41,WSW,253,6.3,8.1,82,0.00,,---,0.00,VWS V14.01,2013-11-28 21:02:00,
2013-11-28 16:03:00,35.8,30.8,29.41,SSW,213,6.3,8.1,82,0.00,,---,0.00,VWS V14.01,2013-11-28 21:03:00,
2013-11-28 16:04:00,35.8,30.8,29.41,SSW,212,3.1,6.3,82,0.00,,---,0.00,VWS V14.01,2013-11-28 21:04:00,
2013-11-28 16:05:00,35.8,30.8,29.41,SW,216,5.8,5.8,82,0.00,,---,0.00,VWS V14.01,2013-11-28 21:05:00,
2013-11-28 16:06:00,35.8,30.8,29.41,West,277,5.4,11.0,82,0.00,,---,0.00,VWS V14.01,2013-11-28 21:06:00,
2013-11-28 16:07:00,35.8,30.8,29.41,SW,220,6.3,13.2,82,0.00,,---,0.00,VWS V14.01,2013-11-28 21:07:00,
2013-11-28 16:08:00,35.8,30.8,29.41,SSW,206,8.3,13.2,82,0.00,,---,0.00,VWS V14.01,2013-11-28 21:08:00,
2013-11-28 16:09:00,35.8,30.8,29.41,SW,215,8.3,8.3,82,0.00,,---,0.00,VWS V14.01,2013-11-28 21:09:00,
2013-11-28 16:10:00,35.8,30.8,29.38,SW,218,11.0,11.0,82,0.00,,---,0.00,VWS V14.01,2013-11-28 21:10:00,
2013-11-28 16:12:00,35.8,30.8,29.38,SSW,207,5.8,7.6,82,0.00,,---,0.00,VWS V14.01,2013-11-28 21:12:00,
2013-11-28 16:13:00,35.6,30.7,29.38,WSW,254,5.4,5.8,82,0.00,,---,0.00,VWS V14.01,2013-11-28 21:13:00,
2013-11-28 16:14:00,35.6,30.7,29.38,South,186,5.8,5.8,82,0.00,,---,0.00,VWS V14.01,2013-11-28 21:14:00,
2013-11-28 16:15:00,35.8,30.8,29.38,SSW,198,4.9,5.8,82,0.00,,---,0.00,VWS V14.01,2013-11-28 21:15:00,
2013-11-28 16:17:00,35.8,30.8,29.38,SSW,211,5.4,8.1,82,0.00,,---,0.00,VWS V14.01,2013-11-28 21:17:00,
2013-11-28 16:18:00,35.8,30.8,29.38,West,273,4.0,5.8,82,0.00,,---,0.00,VWS V14.01,2013-11-28 21:18:00,
2013-11-28 16:19:00,35.8,30.8,29.38,SW,224,5.8,8.1,82,0.00,,---,0.00,VWS V14.01,2013-11-28 21:19:00,
2013-11-28 16:21:00,35.6,30.7,29.38,SW,219,7.6,7.6,82,0.00,,---,0.00,VWS V14.01,2013-11-28 21:21:00,
2013-11-28 16:22:00,35.2,30.3,29.38,SSW,205,7.2,7.2,82,0.00,,---,0.00,VWS V14.01,2013-11-28 21:22:00,
2013-11-28 16:23:00,35.2,30.3,29.38,SSW,197,5.8,7.6,82,0.00,,---,0.00,VWS V14.01,2013-11-28 21:23:00,
2013-11-28 16:24:00,34.5,29.6,29.38,SW,216,8.7,8.7,82,0.00,,---,0.00,VWS V14.01,2013-11-28 21:24:00,
2013-11-28 16:26:00,34.3,29.4,29.41,SSW,211,5.4,6.3,82,0.00,,---,0.00,VWS V14.01,2013-11-28 21:26:00,
2013-11-28 16:28:00,34.0,29.1,29.41,South,187,4.0,5.4,82,0.00,,---,0.00,VWS V14.01,2013-11-28 21:28:00,
2013-11-28 16:29:00,33.8,28.9,29.41,SW,221,2.2,6.3,82,0.00,,---,0.00,VWS V14.01,2013-11-28 21:29:00,
2013-11-28 16:31:00,33.8,28.9,29.41,SW,214,3.6,3.6,82,0.00,,---,0.00,VWS V14.01,2013-11-28 21:31:00,
2013-11-28 16:33:00,33.6,29.0,29.41,SSW,205,4.9,4.9,83,0.00,,---,0.00,VWS V14.01,2013-11-28 21:33:00,
2013-11-28 16:34:00,33.6,29.0,29.41,WSW,246,3.1,4.5,83,0.00,,---,0.00,VWS V14.01,2013-11-28 21:34:00,
2013-11-28 16:36:00,33.4,28.8,29.41,WSW,239,3.1,3.1,83,0.00,,---,0.00,VWS V14.01,2013-11-28 21:36:00,
2013-11-28 16:38:00,33.3,28.7,29.41,SSW,195,3.1,3.1,83,0.00,,---,0.00,VWS V14.01,2013-11-28 21:38:00,
2013-11-28 16:39:00,33.3,28.7,29.41,SSW,200,2.2,4.9,83,0.00,,---,0.00,VWS V14.01,2013-11-28 21:39:00,
2013-11-28 16:40:00,33.3,28.7,29.41,West,273,5.8,5.8,83,0.00,,---,0.00,VWS V14.01,2013-11-28 21:40:00,
2013-11-28 16:41:00,33.3,28.7,29.41,WSW,239,5.4,5.4,83,0.00,,---,0.00,VWS V14.01,2013-11-28 21:41:00,
2013-11-28 16:43:00,33.3,28.7,29.41,SW,229,5.8,5.8,83,0.00,,---,0.00,VWS V14.01,2013-11-28 21:43:00,
2013-11-28 16:44:00,33.3,28.7,29.41,SW,222,3.1,5.8,83,0.00,,---,0.00,VWS V14.01,2013-11-28 21:44:00,
2013-11-28 16:45:00,33.3,28.7,29.41,SW,228,5.4,5.4,83,0.00,,---,0.00,VWS V14.01,2013-11-28 21:45:00,
2013-11-28 16:46:00,33.3,28.7,29.41,WSW,238,5.4,6.3,83,0.00,,---,0.00,VWS V14.01,2013-11-28 21:46:00,
2013-11-28 16:48:00,33.1,28.5,29.41,WSW,242,4.9,4.9,83,0.00,,---,0.00,VWS V14.01,2013-11-28 21:48:00,
2013-11-28 16:49:00,33.1,28.5,29.41,SSW,211,4.0,4.0,83,0.00,,---,0.00,VWS V14.01,2013-11-28 21:49:00,
2013-11-28 16:50:00,33.1,28.5,29.41,SSW,211,2.7,4.0,83,0.00,,---,0.00,VWS V14.01,2013-11-28 21:50:00,
2013-11-28 16:51:00,32.9,28.3,29.41,SSW,205,3.6,3.6,83,0.00,,---,0.00,VWS V14.01,2013-11-28 21:51:00,
2013-11-28 16:53:00,32.9,28.3,29.41,SSW,210,6.3,6.3,83,0.00,,---,0.00,VWS V14.01,2013-11-28 21:53:00,
2013-11-28 16:54:00,32.9,28.3,29.41,West,260,3.6,6.3,83,0.00,,---,0.00,VWS V14.01,2013-11-28 21:54:00,
2013-11-28 16:55:00,32.7,28.1,29.41,WSW,248,5.4,6.3,83,0.00,,---,0.00,VWS V14.01,2013-11-28 21:55:00,
2013-11-28 16:56:00,32.7,28.1,29.41,SW,223,5.8,8.7,83,0.00,,---,0.00,VWS V14.01,2013-11-28 21:56:00,
2013-11-28 16:58:00,32.7,28.1,29.41,WSW,248,4.0,7.6,83,0.00,,---,0.00,VWS V14.01,2013-11-28 21:58:00,
2013-11-28 16:59:00,32.7,28.1,29.41,SW,214,4.0,4.0,83,0.00,,---,0.00,VWS V14.01,2013-11-28 21:59:00,
2013-11-28 17:00:00,32.7,28.1,29.41,SW,236,4.0,4.0,83,0.00,,---,0.00,VWS V14.01,2013-11-28 22:00:00,
2013-11-28 17:01:00,32.7,28.1,29.41,WSW,253,0.0,4.0,83,0.00,,---,0.00,VWS V14.01,2013-11-28 22:01:00,
2013-11-28 17:04:00,32.5,28.0,29.41,WSW,239,3.6,4.9,83,0.00,,---,0.00,VWS V14.01,2013-11-28 22:04:00,
2013-11-28 17:05:00,32.5,28.0,29.41,WSW,244,3.6,5.4,83,0.00,,---,0.00,VWS V14.01,2013-11-28 22:05:00,
2013-11-28 17:06:00,32.5,28.0,29.41,SW,231,3.1,4.0,83,0.00,,---,0.00,VWS V14.01,2013-11-28 22:06:00,
2013-11-28 17:09:00,32.5,28.0,29.41,SSW,209,4.0,4.9,83,0.00,,---,0.00,VWS V14.01,2013-11-28 22:09:00,
2013-11-28 17:10:00,32.4,27.8,29.44,SSW,208,4.0,4.9,83,0.00,,---,0.00,VWS V14.01,2013-11-28 22:10:00,
2013-11-28 17:11:00,32.4,27.8,29.44,WSW,252,3.6,7.6,83,0.00,,---,0.00,VWS V14.01,2013-11-28 22:11:00,
2013-11-28 17:14:00,32.2,27.6,29.44,SSW,210,3.1,4.0,83,0.00,,---,0.00,VWS V14.01,2013-11-28 22:14:00,
2013-11-28 17:15:00,32.2,27.6,29.44,SSW,203,3.1,3.6,83,0.00,,---,0.00,VWS V14.01,2013-11-28 22:15:00,
2013-11-28 17:16:00,32.2,27.6,29.44,SW,214,2.7,3.6,83,0.00,,---,0.00,VWS V14.01,2013-11-28 22:16:00,
2013-11-28 17:19:00,31.8,27.3,29.44,SSW,205,3.6,4.0,83,0.00,,---,0.00,VWS V14.01,2013-11-28 22:19:00,
2013-11-28 17:20:00,31.6,27.1,29.44,SSW,210,4.0,5.4,83,0.00,,---,0.00,VWS V14.01,2013-11-28 22:20:00,
2013-11-28 17:21:00,31.6,27.1,29.44,SW,214,2.7,3.1,83,0.00,,---,0.00,VWS V14.01,2013-11-28 22:21:00,
2013-11-28 17:24:00,31.3,26.7,29.44,SW,234,3.1,3.1,83,0.00,,---,0.00,VWS V14.01,2013-11-28 22:24:00,
2013-11-28 17:25:00,31.3,26.7,29.44,SW,234,0.0,2.7,83,0.00,,---,0.00,VWS V14.01,2013-11-28 22:25:00,
2013-11-28 17:26:00,31.1,26.5,29.44,SW,232,3.1,3.1,83,0.00,,---,0.00,VWS V14.01,2013-11-28 22:26:00,
2013-11-28 17:27:00,31.1,26.5,29.44,SW,230,4.0,4.0,83,0.00,,---,0.00,VWS V14.01,2013-11-28 22:27:00,
2013-11-28 17:29:00,31.1,26.5,29.44,SW,231,0.0,2.2,83,0.00,,---,0.00,VWS V14.01,2013-11-28 22:29:00,
2013-11-28 17:30:00,31.1,26.5,29.44,SW,231,0.0,0.0,83,0.00,,---,0.00,VWS V14.01,2013-11-28 22:30:00,
2013-11-28 17:31:00,31.1,26.5,29.44,SW,223,2.7,6.7,83,0.00,,---,0.00,VWS V14.01,2013-11-28 22:31:00,
2013-11-28 17:32:00,31.1,26.5,29.44,West,269,3.1,6.7,83,0.00,,---,0.00,VWS V14.01,2013-11-28 22:32:00,
2013-11-28 17:34:00,30.9,26.4,29.44,SW,214,2.7,4.0,83,0.00,,---,0.00,VWS V14.01,2013-11-28 22:34:00,
2013-11-28 17:35:00,30.9,26.4,29.44,WSW,242,2.2,3.1,83,0.00,,---,0.00,VWS V14.01,2013-11-28 22:35:00,
2013-11-28 17:36:00,30.9,26.4,29.44,WSW,249,0.0,3.1,83,0.00,,---,0.00,VWS V14.01,2013-11-28 22:36:00,
2013-11-28 17:37:00,30.9,26.4,29.44,WSW,249,0.0,0.0,83,0.00,,---,0.00,VWS V14.01,2013-11-28 22:37:00,
2013-11-28 17:39:00,30.6,26.0,29.44,WSW,243,0.0,0.0,83,0.00,,---,0.00,VWS V14.01,2013-11-28 22:39:00,
2013-11-28 17:40:00,30.6,26.0,29.44,WSW,243,0.0,0.0,83,0.00,,---,0.00,VWS V14.01,2013-11-28 22:40:00,
2013-11-28 17:41:00,30.4,25.9,29.44,WSW,243,0.0,0.0,83,0.00,,---,0.00,VWS V14.01,2013-11-28 22:41:00,
2013-11-28 17:42:00,30.4,25.9,29.44,WSW,243,0.0,0.0,83,0.00,,---,0.00,VWS V14.01,2013-11-28 22:42:00,
2013-11-28 17:44:00,30.2,25.7,29.44,SW,234,0.0,0.0,83,0.00,,---,0.00,VWS V14.01,2013-11-28 22:44:00,
2013-11-28 17:45:00,30.2,25.7,29.44,SW,218,0.0,0.0,83,0.00,,---,0.00,VWS V14.01,2013-11-28 22:45:00,
2013-11-28 17:46:00,30.2,25.7,29.44,SW,231,0.0,0.0,83,0.00,,---,0.00,VWS V14.01,2013-11-28 22:46:00,
2013-11-28 17:47:00,30.2,25.7,29.44,SW,231,0.0,0.0,83,0.00,,---,0.00,VWS V14.01,2013-11-28 22:47:00,
2013-11-28 17:48:00,30.2,25.7,29.44,SW,231,0.0,0.0,83,0.00,,---,0.00,VWS V14.01,2013-11-28 22:48:00,
2013-11-28 17:50:00,30.2,25.7,29.44,SW,226,0.0,0.0,83,0.00,,---,0.00,VWS V14.01,2013-11-28 22:50:00,
2013-11-28 17:51:00,30.2,25.7,29.44,SW,224,3.1,3.1,83,0.00,,---,0.00,VWS V14.01,2013-11-28 22:51:00,
2013-11-28 17:52:00,30.0,25.5,29.44,SW,221,0.0,0.0,83,0.00,,---,0.00,VWS V14.01,2013-11-28 22:52:00,
2013-11-28 17:53:00,30.0,25.5,29.44,SW,215,2.7,2.7,83,0.00,,---,0.00,VWS V14.01,2013-11-28 22:53:00,
2013-11-28 17:55:00,30.0,25.5,29.47,SW,220,0.0,0.0,83,0.00,,---,0.00,VWS V14.01,2013-11-28 22:55:00,
2013-11-28 17:56:00,30.0,25.5,29.47,WSW,244,0.0,2.7,83,0.00,,---,0.00,VWS V14.01,2013-11-28 22:56:00,
2013-11-28 17:57:00,30.0,25.5,29.47,WSW,244,0.0,0.0,83,0.00,,---,0.00,VWS V14.01,2013-11-28 22:57:00,
2013-11-28 17:58:00,30.0,25.5,29.47,WSW,244,0.0,0.0,83,0.00,,---,0.00,VWS V14.01,2013-11-28 22:58:00,
2013-11-28 18:00:00,29.8,25.3,29.47,WSW,244,0.0,0.0,83,0.00,,---,0.00,VWS V14.01,2013-11-28 23:00:00,
2013-11-28 18:02:00,29.7,25.1,29.47,WSW,244,0.0,0.0,83,0.00,,---,0.00,VWS V14.01,2013-11-28 23:02:00,
2013-11-28 18:03:00,29.7,25.1,29.47,WSW,244,0.0,0.0,83,0.00,,---,0.00,VWS V14.01,2013-11-28 23:03:00,
2013-11-28 18:05:00,29.5,25.0,29.47,WSW,244,0.0,0.0,83,0.00,,---,0.00,VWS V14.01,2013-11-28 23:05:00,
2013-11-28 18:07:00,29.3,24.8,29.47,WSW,244,0.0,0.0,83,0.00,,---,0.00,VWS V14.01,2013-11-28 23:07:00,
2013-11-28 18:08:00,29.3,24.8,29.47,WSW,244,0.0,0.0,83,0.00,,---,0.00,VWS V14.01,2013-11-28 23:08:00,
2013-11-28 18:10:00,29.1,24.6,29.47,WSW,244,3.1,3.1,83,0.00,,---,0.00,VWS V14.01,2013-11-28 23:10:00,
2013-11-28 18:12:00,29.1,24.6,29.47,WSW,244,0.0,0.0,83,0.00,,---,0.00,VWS V14.01,2013-11-28 23:12:00,
2013-11-28 18:13:00,29.1,24.6,29.47,WSW,244,0.0,0.0,83,0.00,,---,0.00,VWS V14.01,2013-11-28 23:13:00,
2013-11-28 18:14:00,28.9,24.4,29.47,WSW,244,0.0,0.0,83,0.00,,---,0.00,VWS V14.01,2013-11-28 23:14:00,
2013-11-28 18:15:00,28.9,24.4,29.47,WSW,244,0.0,0.0,83,0.00,,---,0.00,VWS V14.01,2013-11-28 23:15:00,
2013-11-28 18:17:00,28.8,24.3,29.47,WSW,244,0.0,0.0,83,0.00,,---,0.00,VWS V14.01,2013-11-28 23:17:00,
2013-11-28 18:18:00,28.8,24.3,29.47,WSW,244,0.0,0.0,83,0.00,,---,0.00,VWS V14.01,2013-11-28 23:18:00,
2013-11-28 18:19:00,28.8,24.3,29.47,WSW,244,0.0,0.0,83,0.00,,---,0.00,VWS V14.01,2013-11-28 23:19:00,
2013-11-28 18:20:00,28.8,24.3,29.47,WSW,244,0.0,0.0,83,0.00,,---,0.00,VWS V14.01,2013-11-28 23:20:00,
2013-11-28 18:22:00,28.8,24.3,29.47,WSW,244,0.0,0.0,83,0.00,,---,0.00,VWS V14.01,2013-11-28 23:22:00,
2013-11-28 18:23:00,28.6,24.1,29.47,WSW,244,0.0,0.0,83,0.00,,---,0.00,VWS V14.01,2013-11-28 23:23:00,
2013-11-28 18:24:00,28.6,24.1,29.47,WSW,244,0.0,0.0,83,0.00,,---,0.00,VWS V14.01,2013-11-28 23:24:00,
2013-11-28 18:26:00,28.6,24.1,29.47,WSW,244,0.0,0.0,83,0.00,,---,0.00,VWS V14.01,2013-11-28 23:26:00,
2013-11-28 18:27:00,28.6,24.1,29.47,WSW,244,0.0,0.0,83,0.00,,---,0.00,VWS V14.01,2013-11-28 23:27:00,
2013-11-28 18:28:00,28.6,24.1,29.47,WSW,244,0.0,0.0,83,0.00,,---,0.00,VWS V14.01,2013-11-28 23:28:00,
2013-11-28 18:29:00,28.6,24.1,29.47,WSW,244,0.0,0.0,83,0.00,,---,0.00,VWS V14.01,2013-11-28 23:29:00,
2013-11-28 18:31:00,28.6,24.1,29.47,WSW,244,0.0,0.0,83,0.00,,---,0.00,VWS V14.01,2013-11-28 23:31:00,
2013-11-28 18:32:00,28.6,24.1,29.47,WSW,244,0.0,0.0,83,0.00,,---,0.00,VWS V14.01,2013-11-28 23:32:00,
2013-11-28 18:33:00,28.6,24.1,29.47,WSW,244,0.0,0.0,83,0.00,,---,0.00,VWS V14.01,2013-11-28 23:33:00,
2013-11-28 18:34:00,28.6,24.1,29.47,WSW,244,0.0,0.0,83,0.00,,---,0.00,VWS V14.01,2013-11-28 23:34:00,
2013-11-28 18:35:00,28.6,24.1,29.47,WSW,244,0.0,0.0,83,0.00,,---,0.00,VWS V14.01,2013-11-28 23:35:00,
2013-11-28 18:36:00,28.6,24.1,29.47,WSW,244,0.0,0.0,83,0.00,,---,0.00,VWS V14.01,2013-11-28 23:36:00,
2013-11-28 18:37:00,28.6,24.1,29.47,WSW,244,0.0,0.0,83,0.00,,---,0.00,VWS V14.01,2013-11-28 23:37:00,
2013-11-28 18:38:00,28.6,24.1,29.47,WSW,244,0.0,0.0,83,0.00,,---,0.00,VWS V14.01,2013-11-28 23:38:00,
2013-11-28 18:39:00,28.6,24.1,29.47,WSW,244,0.0,0.0,83,0.00,,---,0.00,VWS V14.01,2013-11-28 23:39:00,
2013-11-28 18:40:00,28.6,24.1,29.47,WSW,244,0.0,0.0,83,0.00,,---,0.00,VWS V14.01,2013-11-28 23:40:00,
2013-11-28 18:42:00,28.6,24.1,29.47,WSW,244,0.0,0.0,83,0.00,,---,0.00,VWS V14.01,2013-11-28 23:42:00,
2013-11-28 18:43:00,28.6,24.1,29.47,WSW,244,0.0,0.0,83,0.00,,---,0.00,VWS V14.01,2013-11-28 23:43:00,
2013-11-28 18:44:00,28.4,23.9,29.47,WSW,244,0.0,0.0,83,0.00,,---,0.00,VWS V14.01,2013-11-28 23:44:00,
2013-11-28 18:45:00,28.4,23.9,29.47,WSW,244,0.0,0.0,83,0.00,,---,0.00,VWS V14.01,2013-11-28 23:45:00,
2013-11-28 18:47:00,28.4,23.9,29.47,WSW,244,0.0,0.0,83,0.00,,---,0.00,VWS V14.01,2013-11-28 23:47:00,
2013-11-28 18:48:00,28.4,23.9,29.47,WSW,244,0.0,0.0,83,0.00,,---,0.00,VWS V14.01,2013-11-28 23:48:00,
2013-11-28 18:49:00,28.4,23.9,29.47,WSW,244,0.0,0.0,83,0.00,,---,0.00,VWS V14.01,2013-11-28 23:49:00,
2013-11-28 18:50:00,28.2,23.7,29.47,WSW,244,0.0,0.0,83,0.00,,---,0.00,VWS V14.01,2013-11-28 23:50:00,
2013-11-28 18:52:00,28.2,23.7,29.47,WSW,244,0.0,0.0,83,0.00,,---,0.00,VWS V14.01,2013-11-28 23:52:00,
2013-11-28 18:53:00,28.2,23.7,29.47,WSW,244,0.0,0.0,83,0.00,,---,0.00,VWS V14.01,2013-11-28 23:53:00,
2013-11-28 18:54:00,28.2,23.7,29.47,WSW,244,0.0,0.0,83,0.00,,---,0.00,VWS V14.01,2013-11-28 23:54:00,
2013-11-28 18:55:00,28.2,23.7,29.47,WSW,244,0.0,0.0,83,0.00,,---,0.00,VWS V14.01,2013-11-28 23:55:00,
2013-11-28 18:56:00,28.2,23.7,29.47,WSW,244,0.0,0.0,83,0.00,,---,0.00,VWS V14.01,2013-11-28 23:56:00,
2013-11-28 18:58:00,28.2,23.7,29.47,WSW,244,0.0,0.0,83,0.00,,---,0.00,VWS V14.01,2013-11-28 23:58:00,
2013-11-28 18:59:00,28.0,23.5,29.47,WSW,244,0.0,0.0,83,0.00,,---,0.00,VWS V14.01,2013-11-28 23:59:00,
2013-11-28 19:00:00,28.0,23.5,29.47,WSW,244,0.0,0.0,83,0.00,,---,0.00,VWS V14.01,2013-11-29 00:00:00,
2013-11-28 19:01:00,28.0,23.5,29.47,WSW,244,0.0,0.0,83,0.00,,---,0.00,VWS V14.01,2013-11-29 00:01:00,
2013-11-28 19:03:00,28.0,23.5,29.47,WSW,244,0.0,0.0,83,0.00,,---,0.00,VWS V14.01,2013-11-29 00:03:00,
2013-11-28 19:04:00,27.9,23.4,29.47,WSW,244,0.0,0.0,83,0.00,,---,0.00,VWS V14.01,2013-11-29 00:04:00,
2013-11-28 19:06:00,27.9,23.4,29.47,WSW,244,0.0,0.0,83,0.00,,---,0.00,VWS V14.01,2013-11-29 00:06:00,
2013-11-28 19:07:00,27.9,23.4,29.47,WSW,244,0.0,0.0,83,0.00,,---,0.00,VWS V14.01,2013-11-29 00:07:00,
2013-11-28 19:08:00,27.9,23.4,29.47,WSW,244,0.0,0.0,83,0.00,,---,0.00,VWS V14.01,2013-11-29 00:08:00,
2013-11-28 19:09:00,27.9,23.4,29.47,WSW,244,0.0,0.0,83,0.00,,---,0.00,VWS V14.01,2013-11-29 00:09:00,
2013-11-28 19:11:00,27.7,23.2,29.50,WSW,244,0.0,0.0,83,0.00,,---,0.00,VWS V14.01,2013-11-29 00:11:00,
2013-11-28 19:12:00,27.7,23.2,29.50,WSW,244,0.0,0.0,83,0.00,,---,0.00,VWS V14.01,2013-11-29 00:12:00,
2013-11-28 19:13:00,27.7,23.2,29.50,WSW,244,0.0,0.0,83,0.00,,---,0.00,VWS V14.01,2013-11-29 00:13:00,
2013-11-28 19:14:00,27.7,23.2,29.50,WSW,244,0.0,0.0,83,0.00,,---,0.00,VWS V14.01,2013-11-29 00:14:00,
2013-11-28 19:16:00,27.5,23.0,29.50,WSW,244,0.0,0.0,83,0.00,,---,0.00,VWS V14.01,2013-11-29 00:16:00,
2013-11-28 19:17:00,27.5,23.0,29.50,WSW,244,0.0,0.0,83,0.00,,---,0.00,VWS V14.01,2013-11-29 00:17:00,
2013-11-28 19:18:00,27.3,22.9,29.50,WSW,244,0.0,0.0,83,0.00,,---,0.00,VWS V14.01,2013-11-29 00:18:00,
2013-11-28 19:19:00,27.3,22.9,29.50,WSW,244,0.0,0.0,83,0.00,,---,0.00,VWS V14.01,2013-11-29 00:19:00,
2013-11-28 19:21:00,27.3,22.9,29.50,WSW,244,0.0,0.0,83,0.00,,---,0.00,VWS V14.01,2013-11-29 00:21:00,
2013-11-28 19:22:00,27.3,22.9,29.50,WSW,244,0.0,0.0,83,0.00,,---,0.00,VWS V14.01,2013-11-29 00:22:00,
2013-11-28 19:23:00,27.3,22.9,29.50,WSW,244,0.0,0.0,83,0.00,,---,0.00,VWS V14.01,2013-11-29 00:23:00,
2013-11-28 19:24:00,27.3,22.9,29.50,WSW,244,0.0,0.0,83,0.00,,---,0.00,VWS V14.01,2013-11-29 00:24:00,
2013-11-28 19:25:00,27.3,22.9,29.50,WSW,244,0.0,0.0,83,0.00,,---,0.00,VWS V14.01,2013-11-29 00:25:00,
2013-11-28 19:27:00,27.1,22.7,29.50,WSW,244,0.0,0.0,83,0.00,,---,0.00,VWS V14.01,2013-11-29 00:27:00,
2013-11-28 19:28:00,27.0,22.5,29.50,WSW,244,0.0,0.0,83,0.00,,---,0.00,VWS V14.01,2013-11-29 00:28:00,
2013-11-28 19:29:00,26.8,22.3,29.50,WSW,244,0.0,0.0,83,0.00,,---,0.00,VWS V14.01,2013-11-29 00:29:00,
2013-11-28 19:30:00,26.8,22.3,29.50,WSW,244,0.0,0.0,83,0.00,,---,0.00,VWS V14.01,2013-11-29 00:30:00,
2013-11-28 19:32:00,26.6,22.4,29.50,WSW,244,0.0,0.0,84,0.00,,---,0.00,VWS V14.01,2013-11-29 00:32:00,
2013-11-28 19:34:00,26.4,22.2,29.50,WSW,244,0.0,0.0,84,0.00,,---,0.00,VWS V14.01,2013-11-29 00:34:00,
2013-11-28 19:35:00,26.4,22.2,29.50,WSW,244,0.0,0.0,84,0.00,,---,0.00,VWS V14.01,2013-11-29 00:35:00,
2013-11-28 19:37:00,26.2,22.1,29.50,WSW,244,0.0,0.0,84,0.00,,---,0.00,VWS V14.01,2013-11-29 00:37:00,
2013-11-28 19:39:00,26.2,22.1,29.50,WSW,244,0.0,0.0,84,0.00,,---,0.00,VWS V14.01,2013-11-29 00:39:00,
2013-11-28 19:40:00,26.2,22.1,29.50,WSW,244,0.0,0.0,84,0.00,,---,0.00,VWS V14.01,2013-11-29 00:40:00,
2013-11-28 19:42:00,26.4,22.2,29.50,WSW,244,0.0,0.0,84,0.00,,---,0.00,VWS V14.01,2013-11-29 00:42:00,
2013-11-28 19:43:00,26.4,22.2,29.50,WSW,244,0.0,0.0,84,0.00,,---,0.00,VWS V14.01,2013-11-29 00:43:00,
2013-11-28 19:44:00,26.4,22.2,29.50,WSW,244,0.0,0.0,84,0.00,,---,0.00,VWS V14.01,2013-11-29 00:44:00,
2013-11-28 19:45:00,26.4,22.2,29.50,WSW,244,0.0,0.0,84,0.00,,---,0.00,VWS V14.01,2013-11-29 00:45:00,
2013-11-28 19:47:00,26.6,22.4,29.50,WSW,244,0.0,0.0,84,0.00,,---,0.00,VWS V14.01,2013-11-29 00:47:00,
2013-11-28 19:48:00,26.6,22.4,29.50,WSW,244,0.0,0.0,84,0.00,,---,0.00,VWS V14.01,2013-11-29 00:48:00,
2013-11-28 19:49:00,26.6,22.4,29.50,WSW,244,0.0,0.0,84,0.00,,---,0.00,VWS V14.01,2013-11-29 00:49:00,
2013-11-28 19:50:00,26.6,22.4,29.50,WSW,244,0.0,0.0,84,0.00,,---,0.00,VWS V14.01,2013-11-29 00:50:00,
2013-11-28 19:53:00,26.4,22.2,29.50,WSW,244,0.0,0.0,84,0.00,,---,0.00,VWS V14.01,2013-11-29 00:53:00,
2013-11-28 19:54:00,26.4,22.2,29.50,WSW,244,0.0,0.0,84,0.00,,---,0.00,VWS V14.01,2013-11-29 00:54:00,
2013-11-28 19:55:00,26.4,22.2,29.50,WSW,244,0.0,0.0,84,0.00,,---,0.00,VWS V14.01,2013-11-29 00:55:00,
2013-11-28 19:56:00,26.4,22.2,29.50,WSW,244,0.0,0.0,84,0.00,,---,0.00,VWS V14.01,2013-11-29 00:56:00,
2013-11-28 19:59:00,26.4,22.2,29.50,WSW,244,0.0,0.0,84,0.00,,---,0.00,VWS V14.01,2013-11-29 00:59:00,
2013-11-28 20:00:00,26.4,22.2,29.50,WSW,244,0.0,0.0,84,0.00,,---,0.00,VWS V14.01,2013-11-29 01:00:00,
2013-11-28 20:01:00,26.4,22.2,29.50,WSW,244,0.0,0.0,84,0.00,,---,0.00,VWS V14.01,2013-11-29 01:01:00,
2013-11-28 20:04:00,26.2,22.1,29.50,WSW,244,0.0,0.0,84,0.00,,---,0.00,VWS V14.01,2013-11-29 01:04:00,
2013-11-28 20:05:00,26.2,22.1,29.50,WSW,244,0.0,0.0,84,0.00,,---,0.00,VWS V14.01,2013-11-29 01:05:00,
2013-11-28 20:06:00,26.4,22.2,29.50,WSW,244,0.0,0.0,84,0.00,,---,0.00,VWS V14.01,2013-11-29 01:06:00,
2013-11-28 20:09:00,26.6,22.4,29.50,WSW,244,0.0,0.0,84,0.00,,---,0.00,VWS V14.01,2013-11-29 01:09:00,
2013-11-28 20:10:00,26.6,22.4,29.50,WSW,244,0.0,0.0,84,0.00,,---,0.00,VWS V14.01,2013-11-29 01:10:00,
2013-11-28 20:11:00,26.8,22.3,29.50,WSW,244,0.0,0.0,83,0.00,,---,0.00,VWS V14.01,2013-11-29 01:11:00,
2013-11-28 20:14:00,27.0,22.5,29.50,WSW,244,0.0,0.0,83,0.00,,---,0.00,VWS V14.01,2013-11-29 01:14:00,
2013-11-28 20:15:00,27.1,22.7,29.50,WSW,244,0.0,0.0,83,0.00,,---,0.00,VWS V14.01,2013-11-29 01:15:00,
2013-11-28 20:18:00,27.5,23.0,29.50,WSW,244,0.0,0.0,83,0.00,,---,0.00,VWS V14.01,2013-11-29 01:18:00,
2013-11-28 20:19:00,27.5,23.0,29.50,WSW,244,0.0,0.0,83,0.00,,---,0.00,VWS V14.01,2013-11-29 01:19:00,
2013-11-28 20:20:00,27.5,23.0,29.50,WSW,244,0.0,0.0,83,0.00,,---,0.00,VWS V14.01,2013-11-29 01:20:00,
2013-11-28 20:21:00,27.7,23.2,29.50,WSW,244,0.0,0.0,83,0.00,,---,0.00,VWS V14.01,2013-11-29 01:21:00,
2013-11-28 20:23:00,27.7,23.2,29.50,WSW,244,0.0,0.0,83,0.00,,---,0.00,VWS V14.01,2013-11-29 01:23:00,
2013-11-28 20:25:00,27.7,23.2,29.50,WSW,244,0.0,0.0,83,0.00,,---,0.00,VWS V14.01,2013-11-29 01:25:00,
2013-11-28 20:26:00,27.7,23.2,29.50,WSW,244,0.0,0.0,83,0.00,,---,0.00,VWS V14.01,2013-11-29 01:26:00,
2013-11-28 20:29:00,27.7,23.2,29.50,WSW,244,0.0,0.0,83,0.00,,---,0.00,VWS V14.01,2013-11-29 01:29:00,
2013-11-28 20:30:00,27.7,23.2,29.50,WSW,244,0.0,0.0,83,0.00,,---,0.00,VWS V14.01,2013-11-29 01:30:00,
2013-11-28 20:31:00,27.7,23.2,29.50,WSW,244,0.0,0.0,83,0.00,,---,0.00,VWS V14.01,2013-11-29 01:31:00,
2013-11-28 20:34:00,27.7,23.2,29.50,WSW,244,0.0,0.0,83,0.00,,---,0.00,VWS V14.01,2013-11-29 01:34:00,
2013-11-28 20:35:00,27.7,23.2,29.50,WSW,244,0.0,0.0,83,0.00,,---,0.00,VWS V14.01,2013-11-29 01:35:00,
2013-11-28 20:36:00,27.7,23.2,29.50,WSW,244,0.0,0.0,83,0.00,,---,0.00,VWS V14.01,2013-11-29 01:36:00,
2013-11-28 20:39:00,27.7,23.2,29.50,WSW,244,0.0,0.0,83,0.00,,---,0.00,VWS V14.01,2013-11-29 01:39:00,
2013-11-28 20:40:00,27.9,23.4,29.50,WSW,244,0.0,0.0,83,0.00,,---,0.00,VWS V14.01,2013-11-29 01:40:00,
2013-11-28 20:41:00,27.9,23.4,29.50,WSW,244,0.0,0.0,83,0.00,,---,0.00,VWS V14.01,2013-11-29 01:41:00,
2013-11-28 20:44:00,28.0,23.5,29.50,WSW,244,0.0,0.0,83,0.00,,---,0.00,VWS V14.01,2013-11-29 01:44:00,
2013-11-28 20:45:00,28.0,23.5,29.50,WSW,244,0.0,0.0,83,0.00,,---,0.00,VWS V14.01,2013-11-29 01:45:00,
2013-11-28 20:46:00,28.0,23.5,29.50,WSW,244,0.0,0.0,83,0.00,,---,0.00,VWS V14.01,2013-11-29 01:46:00,
2013-11-28 20:47:00,28.2,23.7,29.50,WSW,244,0.0,0.0,83,0.00,,---,0.00,VWS V14.01,2013-11-29 01:47:00,
2013-11-28 20:49:00,28.2,23.7,29.50,WSW,244,0.0,0.0,83,0.00,,---,0.00,VWS V14.01,2013-11-29 01:49:00,
2013-11-28 20:50:00,28.2,23.7,29.50,WSW,244,0.0,0.0,83,0.00,,---,0.00,VWS V14.01,2013-11-29 01:50:00,
2013-11-28 20:51:00,28.2,23.7,29.50,WSW,244,0.0,0.0,83,0.00,,---,0.00,VWS V14.01,2013-11-29 01:51:00,
2013-11-28 20:52:00,28.2,23.7,29.50,WSW,244,0.0,0.0,83,0.00,,---,0.00,VWS V14.01,2013-11-29 01:52:00,
2013-11-28 20:55:00,28.2,23.7,29.53,WSW,244,0.0,0.0,83,0.00,,---,0.00,VWS V14.01,2013-11-29 01:55:00,
2013-11-28 20:56:00,28.2,23.7,29.53,WSW,244,0.0,0.0,83,0.00,,---,0.00,VWS V14.01,2013-11-29 01:56:00,
2013-11-28 20:57:00,28.0,23.5,29.53,WSW,244,0.0,0.0,83,0.00,,---,0.00,VWS V14.01,2013-11-29 01:57:00,
2013-11-28 21:00:00,28.0,23.5,29.53,WSW,244,0.0,0.0,83,0.00,,---,0.00,VWS V14.01,2013-11-29 02:00:00,
2013-11-28 21:01:00,28.0,23.5,29.53,WSW,244,0.0,0.0,83,0.00,,---,0.00,VWS V14.01,2013-11-29 02:01:00,
2013-11-28 21:02:00,28.0,23.5,29.53,WSW,244,0.0,0.0,83,0.00,,---,0.00,VWS V14.01,2013-11-29 02:02:00,
2013-11-28 21:03:00,28.0,23.5,29.53,WSW,244,0.0,0.0,83,0.00,,---,0.00,VWS V14.01,2013-11-29 02:03:00,
2013-11-28 21:05:00,28.0,23.5,29.53,WSW,244,3.1,3.1,83,0.00,,---,0.00,VWS V14.01,2013-11-29 02:05:00,
2013-11-28 21:06:00,28.0,23.5,29.53,WSW,244,0.0,3.1,83,0.00,,---,0.00,VWS V14.01,2013-11-29 02:06:00,
2013-11-28 21:07:00,28.2,23.7,29.53,WSW,244,0.0,0.0,83,0.00,,---,0.00,VWS V14.01,2013-11-29 02:07:00,
2013-11-28 21:08:00,28.2,23.7,29.53,WSW,244,0.0,0.0,83,0.00,,---,0.00,VWS V14.01,2013-11-29 02:08:00,
2013-11-28 21:10:00,28.2,23.7,29.53,WSW,244,0.0,0.0,83,0.00,,---,0.00,VWS V14.01,2013-11-29 02:10:00,
2013-11-28 21:11:00,28.2,23.7,29.53,WSW,244,0.0,0.0,83,0.00,,---,0.00,VWS V14.01,2013-11-29 02:11:00,
2013-11-28 21:12:00,28.2,23.7,29.53,WSW,244,0.0,0.0,83,0.00,,---,0.00,VWS V14.01,2013-11-29 02:12:00,
2013-11-28 21:13:00,28.2,23.7,29.53,WSW,244,0.0,0.0,83,0.00,,---,0.00,VWS V14.01,2013-11-29 02:13:00,
2013-11-28 21:14:00,28.2,23.7,29.53,WSW,244,0.0,0.0,83,0.00,,---,0.00,VWS V14.01,2013-11-29 02:14:00,
2013-11-28 21:15:00,28.4,23.9,29.53,WSW,244,0.0,0.0,83,0.00,,---,0.00,VWS V14.01,2013-11-29 02:15:00,
2013-11-28 21:16:00,28.4,23.9,29.53,WSW,244,0.0,0.0,83,0.00,,---,0.00,VWS V14.01,2013-11-29 02:16:00,
2013-11-28 21:17:00,28.2,23.7,29.53,WSW,244,0.0,0.0,83,0.00,,---,0.00,VWS V14.01,2013-11-29 02:17:00,
2013-11-28 21:18:00,28.2,23.7,29.53,WSW,244,2.7,3.1,83,0.00,,---,0.00,VWS V14.01,2013-11-29 02:18:00,
2013-11-28 21:19:00,28.2,23.7,29.53,WSW,244,0.0,0.0,83,0.00,,---,0.00,VWS V14.01,2013-11-29 02:19:00,
2013-11-28 21:20:00,28.2,23.7,29.53,WSW,244,2.7,2.7,83,0.00,,---,0.00,VWS V14.01,2013-11-29 02:20:00,
2013-11-28 21:21:00,28.2,23.7,29.53,WSW,244,0.0,0.0,83,0.00,,---,0.00,VWS V14.01,2013-11-29 02:21:00,
2013-11-28 21:22:00,28.2,23.7,29.53,WSW,244,0.0,0.0,83,0.00,,---,0.00,VWS V14.01,2013-11-29 02:22:00,
2013-11-28 21:23:00,28.2,23.7,29.53,WSW,244,0.0,0.0,83,0.00,,---,0.00,VWS V14.01,2013-11-29 02:23:00,
2013-11-28 21:24:00,28.2,23.7,29.53,WSW,244,0.0,0.0,83,0.00,,---,0.00,VWS V14.01,2013-11-29 02:24:00,
2013-11-28 21:25:00,28.2,23.7,29.53,WSW,244,0.0,0.0,83,0.00,,---,0.00,VWS V14.01,2013-11-29 02:25:00,
2013-11-28 21:26:00,28.2,23.7,29.53,WSW,244,0.0,0.0,83,0.00,,---,0.00,VWS V14.01,2013-11-29 02:26:00,
2013-11-28 21:27:00,28.2,23.7,29.53,WSW,244,0.0,0.0,83,0.00,,---,0.00,VWS V14.01,2013-11-29 02:27:00,
2013-11-28 21:28:00,28.2,23.7,29.53,WSW,244,0.0,0.0,83,0.00,,---,0.00,VWS V14.01,2013-11-29 02:28:00,
2013-11-28 21:29:00,28.2,23.7,29.53,WSW,244,0.0,0.0,83,0.00,,---,0.00,VWS V14.01,2013-11-29 02:29:00,
2013-11-28 21:30:00,28.2,23.7,29.53,WSW,244,0.0,0.0,83,0.00,,---,0.00,VWS V14.01,2013-11-29 02:30:00,
2013-11-28 21:31:00,28.2,23.7,29.53,WSW,244,0.0,0.0,83,0.00,,---,0.00,VWS V14.01,2013-11-29 02:31:00,
2013-11-28 21:32:00,28.2,23.7,29.53,WSW,244,0.0,0.0,83,0.00,,---,0.00,VWS V14.01,2013-11-29 02:32:00,
2013-11-28 21:34:00,28.2,23.7,29.53,WSW,244,2.2,2.2,83,0.00,,---,0.00,VWS V14.01,2013-11-29 02:34:00,
2013-11-28 21:35:00,28.2,23.7,29.53,WSW,244,0.0,0.0,83,0.00,,---,0.00,VWS V14.01,2013-11-29 02:35:00,
2013-11-28 21:37:00,28.2,23.7,29.53,WSW,244,0.0,0.0,83,0.00,,---,0.00,VWS V14.01,2013-11-29 02:37:00,
2013-11-28 21:39:00,28.0,23.5,29.53,WSW,244,0.0,0.0,83,0.00,,---,0.00,VWS V14.01,2013-11-29 02:39:00,
2013-11-28 21:40:00,28.0,23.5,29.50,WSW,244,0.0,0.0,83,0.00,,---,0.00,VWS V14.01,2013-11-29 02:40:00,
2013-11-28 21:42:00,28.0,23.5,29.50,WSW,244,0.0,0.0,83,0.00,,---,0.00,VWS V14.01,2013-11-29 02:42:00,
2013-11-28 21:44:00,27.9,23.4,29.50,WSW,244,0.0,0.0,83,0.00,,---,0.00,VWS V14.01,2013-11-29 02:44:00,
2013-11-28 21:46:00,27.9,23.4,29.50,WSW,244,0.0,0.0,83,0.00,,---,0.00,VWS V14.01,2013-11-29 02:46:00,
2013-11-28 21:47:00,27.9,23.4,29.50,WSW,244,0.0,0.0,83,0.00,,---,0.00,VWS V14.01,2013-11-29 02:47:00,
2013-11-28 21:50:00,27.9,23.4,29.50,WSW,244,0.0,0.0,83,0.00,,---,0.00,VWS V14.01,2013-11-29 02:50:00,
2013-11-28 21:51:00,27.9,23.4,29.50,WSW,244,0.0,0.0,83,0.00,,---,0.00,VWS V14.01,2013-11-29 02:51:00,
2013-11-28 21:52:00,27.7,23.2,29.50,WSW,244,2.7,2.7,83,0.00,,---,0.00,VWS V14.01,2013-11-29 02:52:00,
2013-11-28 21:55:00,27.5,23.0,29.53,WSW,244,0.0,0.0,83,0.00,,---,0.00,VWS V14.01,2013-11-29 02:55:00,
2013-11-28 21:56:00,27.5,23.0,29.53,WSW,244,0.0,0.0,83,0.00,,---,0.00,VWS V14.01,2013-11-29 02:56:00,
2013-11-28 21:57:00,27.5,23.0,29.53,WSW,244,0.0,0.0,83,0.00,,---,0.00,VWS V14.01,2013-11-29 02:57:00,
2013-11-28 22:00:00,27.5,23.0,29.53,WSW,244,0.0,0.0,83,0.00,,---,0.00,VWS V14.01,2013-11-29 03:00:00,
2013-11-28 22:01:00,27.5,23.0,29.53,WSW,244,0.0,0.0,83,0.00,,---,0.00,VWS V14.01,2013-11-29 03:01:00,
2013-11-28 22:02:00,27.5,23.0,29.53,WSW,244,0.0,0.0,83,0.00,,---,0.00,VWS V14.01,2013-11-29 03:02:00,
2013-11-28 22:05:00,27.1,22.7,29.53,WSW,244,0.0,0.0,83,0.00,,---,0.00,VWS V14.01,2013-11-29 03:05:00,
2013-11-28 22:06:00,27.1,22.7,29.53,WSW,244,0.0,0.0,83,0.00,,---,0.00,VWS V14.01,2013-11-29 03:06:00,
2013-11-28 22:07:00,27.1,22.7,29.53,WSW,244,0.0,0.0,83,0.00,,---,0.00,VWS V14.01,2013-11-29 03:07:00,
2013-11-28 22:08:00,27.1,22.7,29.53,WSW,244,0.0,0.0,83,0.00,,---,0.00,VWS V14.01,2013-11-29 03:08:00,
2013-11-28 22:11:00,27.0,22.5,29.53,WSW,244,0.0,0.0,83,0.00,,---,0.00,VWS V14.01,2013-11-29 03:11:00,
2013-11-28 22:12:00,27.0,22.5,29.53,WSW,244,0.0,0.0,83,0.00,,---,0.00,VWS V14.01,2013-11-29 03:12:00,
2013-11-28 22:13:00,27.0,22.5,29.53,WSW,244,0.0,0.0,83,0.00,,---,0.00,VWS V14.01,2013-11-29 03:13:00,
2013-11-28 22:16:00,27.0,22.5,29.53,WSW,244,0.0,0.0,83,0.00,,---,0.00,VWS V14.01,2013-11-29 03:16:00,
2013-11-28 22:17:00,27.0,22.5,29.53,WSW,244,0.0,0.0,83,0.00,,---,0.00,VWS V14.01,2013-11-29 03:17:00,
2013-11-28 22:18:00,27.0,22.5,29.53,WSW,244,0.0,0.0,83,0.00,,---,0.00,VWS V14.01,2013-11-29 03:18:00,
2013-11-28 22:21:00,27.0,22.5,29.53,WSW,244,0.0,0.0,83,0.00,,---,0.00,VWS V14.01,2013-11-29 03:21:00,
2013-11-28 22:22:00,27.0,22.5,29.53,WSW,244,0.0,0.0,83,0.00,,---,0.00,VWS V14.01,2013-11-29 03:22:00,
2013-11-28 22:23:00,27.0,22.5,29.53,WSW,244,0.0,0.0,83,0.00,,---,0.00,VWS V14.01,2013-11-29 03:23:00,
2013-11-28 22:26:00,27.0,22.5,29.53,WSW,244,0.0,0.0,83,0.00,,---,0.00,VWS V14.01,2013-11-29 03:26:00,
2013-11-28 22:27:00,27.0,22.5,29.53,WSW,244,0.0,0.0,83,0.00,,---,0.00,VWS V14.01,2013-11-29 03:27:00,
2013-11-28 22:28:00,27.0,22.5,29.53,WSW,244,0.0,0.0,83,0.00,,---,0.00,VWS V14.01,2013-11-29 03:28:00,
2013-11-28 22:29:00,27.0,22.5,29.53,WSW,244,0.0,0.0,83,0.00,,---,0.00,VWS V14.01,2013-11-29 03:29:00,
2013-11-28 22:32:00,27.0,22.5,29.53,WSW,244,0.0,0.0,83,0.00,,---,0.00,VWS V14.01,2013-11-29 03:32:00,
2013-11-28 22:33:00,27.0,22.5,29.53,WSW,244,0.0,0.0,83,0.00,,---,0.00,VWS V14.01,2013-11-29 03:33:00,
2013-11-28 22:34:00,27.0,22.5,29.53,WSW,244,0.0,0.0,83,0.00,,---,0.00,VWS V14.01,2013-11-29 03:34:00,
2013-11-28 22:37:00,27.0,22.5,29.53,WSW,244,0.0,0.0,83,0.00,,---,0.00,VWS V14.01,2013-11-29 03:37:00,
2013-11-28 22:38:00,27.0,22.5,29.53,WSW,244,0.0,0.0,83,0.00,,---,0.00,VWS V14.01,2013-11-29 03:38:00,
2013-11-28 22:40:00,27.0,22.5,29.53,WSW,244,0.0,0.0,83,0.00,,---,0.00,VWS V14.01,2013-11-29 03:40:00,
2013-11-28 22:42:00,27.0,22.5,29.53,WSW,244,0.0,0.0,83,0.00,,---,0.00,VWS V14.01,2013-11-29 03:42:00,
2013-11-28 22:43:00,26.8,22.3,29.53,WSW,244,0.0,0.0,83,0.00,,---,0.00,VWS V14.01,2013-11-29 03:43:00,
2013-11-28 22:45:00,26.6,22.4,29.53,WSW,244,0.0,0.0,84,0.00,,---,0.00,VWS V14.01,2013-11-29 03:45:00,
2013-11-28 22:47:00,26.6,22.4,29.53,WSW,244,0.0,0.0,84,0.00,,---,0.00,VWS V14.01,2013-11-29 03:47:00,
2013-11-28 22:48:00,26.6,22.4,29.53,WSW,244,0.0,0.0,84,0.00,,---,0.00,VWS V14.01,2013-11-29 03:48:00,
2013-11-28 22:50:00,26.4,22.2,29.53,WSW,244,0.0,0.0,84,0.00,,---,0.00,VWS V14.01,2013-11-29 03:50:00,
2013-11-28 22:52:00,26.2,22.1,29.53,WSW,244,0.0,0.0,84,0.00,,---,0.00,VWS V14.01,2013-11-29 03:52:00,
2013-11-28 22:53:00,26.2,22.1,29.53,WSW,244,0.0,0.0,84,0.00,,---,0.00,VWS V14.01,2013-11-29 03:53:00,
2013-11-28 22:56:00,26.2,22.1,29.53,WSW,244,0.0,0.0,84,0.00,,---,0.00,VWS V14.01,2013-11-29 03:56:00,
2013-11-28 22:57:00,26.2,22.1,29.53,WSW,244,0.0,0.0,84,0.00,,---,0.00,VWS V14.01,2013-11-29 03:57:00,
2013-11-28 22:58:00,26.1,21.9,29.53,WSW,244,0.0,0.0,84,0.00,,---,0.00,VWS V14.01,2013-11-29 03:58:00,
2013-11-28 22:59:00,26.1,21.9,29.53,WSW,244,0.0,0.0,84,0.00,,---,0.00,VWS V14.01,2013-11-29 03:59:00,
2013-11-28 23:01:00,26.1,21.9,29.53,WSW,244,0.0,0.0,84,0.00,,---,0.00,VWS V14.01,2013-11-29 04:01:00,
2013-11-28 23:02:00,26.1,21.9,29.53,WSW,244,0.0,0.0,84,0.00,,---,0.00,VWS V14.01,2013-11-29 04:02:00,
2013-11-28 23:03:00,26.1,21.9,29.53,WSW,244,0.0,0.0,84,0.00,,---,0.00,VWS V14.01,2013-11-29 04:03:00,
2013-11-28 23:04:00,26.1,21.9,29.53,WSW,244,0.0,0.0,84,0.00,,---,0.00,VWS V14.01,2013-11-29 04:04:00,
2013-11-28 23:06:00,25.9,21.7,29.53,WSW,244,0.0,0.0,84,0.00,,---,0.00,VWS V14.01,2013-11-29 04:06:00,
2013-11-28 23:07:00,25.9,21.7,29.53,WSW,244,0.0,0.0,84,0.00,,---,0.00,VWS V14.01,2013-11-29 04:07:00,
2013-11-28 23:08:00,25.9,21.7,29.53,WSW,244,0.0,0.0,84,0.00,,---,0.00,VWS V14.01,2013-11-29 04:08:00,
2013-11-28 23:09:00,25.7,21.5,29.53,WSW,244,0.0,0.0,84,0.00,,---,0.00,VWS V14.01,2013-11-29 04:09:00,
2013-11-28 23:11:00,25.5,21.4,29.56,WSW,244,0.0,0.0,84,0.00,,---,0.00,VWS V14.01,2013-11-29 04:11:00,
2013-11-28 23:13:00,25.5,21.4,29.56,WSW,244,0.0,0.0,84,0.00,,---,0.00,VWS V14.01,2013-11-29 04:13:00,
2013-11-28 23:14:00,25.5,21.4,29.56,WSW,244,0.0,0.0,84,0.00,,---,0.00,VWS V14.01,2013-11-29 04:14:00,
2013-11-28 23:17:00,25.5,21.4,29.56,WSW,244,0.0,0.0,84,0.00,,---,0.00,VWS V14.01,2013-11-29 04:17:00,
2013-11-28 23:18:00,25.5,21.4,29.56,WSW,244,0.0,0.0,84,0.00,,---,0.00,VWS V14.01,2013-11-29 04:18:00,
2013-11-28 23:19:00,25.3,21.2,29.56,WSW,244,0.0,0.0,84,0.00,,---,0.00,VWS V14.01,2013-11-29 04:19:00,
2013-11-28 23:22:00,25.3,21.2,29.56,WSW,244,0.0,0.0,84,0.00,,---,0.00,VWS V14.01,2013-11-29 04:22:00,
2013-11-28 23:23:00,25.3,21.2,29.56,WSW,244,0.0,0.0,84,0.00,,---,0.00,VWS V14.01,2013-11-29 04:23:00,
2013-11-28 23:24:00,25.5,21.4,29.56,WSW,244,0.0,0.0,84,0.00,,---,0.00,VWS V14.01,2013-11-29 04:24:00,
2013-11-28 23:25:00,25.5,21.4,29.56,WSW,244,0.0,0.0,84,0.00,,---,0.00,VWS V14.01,2013-11-29 04:25:00,
2013-11-28 23:27:00,25.3,21.2,29.56,WSW,244,0.0,0.0,84,0.00,,---,0.00,VWS V14.01,2013-11-29 04:27:00,
2013-11-28 23:28:00,25.3,21.2,29.56,WSW,244,0.0,0.0,84,0.00,,---,0.00,VWS V14.01,2013-11-29 04:28:00,
2013-11-28 23:29:00,25.3,21.2,29.56,WSW,244,0.0,0.0,84,0.00,,---,0.00,VWS V14.01,2013-11-29 04:29:00,
2013-11-28 23:30:00,25.3,21.2,29.56,WSW,244,0.0,0.0,84,0.00,,---,0.00,VWS V14.01,2013-11-29 04:30:00,
2013-11-28 23:33:00,25.5,21.4,29.56,WSW,244,0.0,0.0,84,0.00,,---,0.00,VWS V14.01,2013-11-29 04:33:00,
2013-11-28 23:34:00,25.5,21.4,29.56,WSW,244,0.0,0.0,84,0.00,,---,0.00,VWS V14.01,2013-11-29 04:34:00,
2013-11-28 23:36:00,25.5,21.4,29.56,WSW,244,0.0,0.0,84,0.00,,---,0.00,VWS V14.01,2013-11-29 04:36:00,
2013-11-28 23:38:00,25.5,21.4,29.56,WSW,244,0.0,0.0,84,0.00,,---,0.00,VWS V14.01,2013-11-29 04:38:00,
2013-11-28 23:39:00,25.5,21.4,29.56,WSW,244,0.0,0.0,84,0.00,,---,0.00,VWS V14.01,2013-11-29 04:39:00,
2013-11-28 23:41:00,25.3,21.2,29.56,WSW,244,0.0,0.0,84,0.00,,---,0.00,VWS V14.01,2013-11-29 04:41:00,
2013-11-28 23:43:00,25.2,21.0,29.56,WSW,244,0.0,0.0,84,0.00,,---,0.00,VWS V14.01,2013-11-29 04:43:00,
2013-11-28 23:44:00,25.2,21.0,29.56,WSW,244,0.0,0.0,84,0.00,,---,0.00,VWS V14.01,2013-11-29 04:44:00,
2013-11-28 23:45:00,25.2,21.0,29.56,WSW,244,0.0,0.0,84,0.00,,---,0.00,VWS V14.01,2013-11-29 04:45:00,
2013-11-28 23:46:00,25.2,21.0,29.56,WSW,244,0.0,0.0,84,0.00,,---,0.00,VWS V14.01,2013-11-29 04:46:00,
2013-11-28 23:49:00,25.0,20.8,29.56,WSW,244,0.0,0.0,84,0.00,,---,0.00,VWS V14.01,2013-11-29 04:49:00,
2013-11-28 23:50:00,25.0,20.8,29.56,WSW,244,0.0,0.0,84,0.00,,---,0.00,VWS V14.01,2013-11-29 04:50:00,
2013-11-28 23:52:00,25.0,20.8,29.56,WSW,244,0.0,0.0,84,0.00,,---,0.00,VWS V14.01,2013-11-29 04:52:00,
2013-11-28 23:54:00,25.2,21.0,29.56,WSW,244,0.0,0.0,84,0.00,,---,0.00,VWS V14.01,2013-11-29 04:54:00,
2013-11-28 23:55:00,25.2,21.0,29.56,WSW,244,0.0,0.0,84,0.00,,---,0.00,VWS V14.01,2013-11-29 04:55:00,
2013-11-28 23:57:00,25.2,21.0,29.56,WSW,244,0.0,0.0,84,0.00,,---,0.00,VWS V14.01,2013-11-29 04:57:00,
2013-11-28 23:59:00,25.0,20.8,29.56,WSW,244,0.0,0.0,84,0.00,,---,0.00,VWS V14.01,2013-11-29 04:59:00,